| time (UTC) | temp C | wind direction | speed KPH | gust KPH | rain 1hr cm | rain 24hr cm | rain mn cm | humidity % | barometer mb |
| 20260904152129 | 29 | 216 | 0.0 | 3.2 | 0.00 | 1.22 | 0.00 | 84 | 1011.0 |
| 20260904151715 | 29 | 214 | 0.0 | 3.2 | 0.00 | 1.22 | 0.00 | 86 | 1010.9 |
| 20260904151620 | 28 | 214 | 0.0 | 3.2 | 0.00 | 1.22 | 0.00 | 85 | 1010.9 |
| 20260904151424 | 28 | 214 | 0.0 | 3.2 | 0.00 | 1.22 | 0.00 | 85 | 1010.9 |
| 20260904151322 | 28 | 214 | 0.0 | 3.2 | 0.00 | 1.22 | 0.00 | 86 | 1010.9 |
| 20260904151317 | 28 | 214 | 0.0 | 3.2 | 0.00 | 1.22 | 0.00 | 86 | 1010.9 |
| 20260904151225 | 28 | 214 | 0.0 | 3.2 | 0.00 | 1.22 | 0.00 | 86 | 1010.9 |
| 20260904151144 | 28 | 214 | 0.0 | 3.2 | 0.00 | 1.22 | 0.00 | 86 | 1010.9 |
| 20260904150719 | 28 | 214 | 0.0 | 3.2 | 0.00 | 1.22 | 0.00 | 86 | 1010.9 |
| 20260904150516 | 28 | 217 | 0.0 | 4.8 | 0.00 | 1.22 | 0.00 | 86 | 1010.8 |
| 20260904150433 | 28 | 214 | 0.0 | 4.8 | 0.00 | 1.22 | 0.00 | 86 | 1010.9 |
| 20260904150319 | 28 | 214 | 0.0 | 4.8 | 0.00 | 1.22 | 0.00 | 86 | 1010.9 |
| 20260904150315 | 28 | 214 | 0.0 | 4.8 | 0.00 | 1.22 | 0.00 | 86 | 1010.9 |
| 20260904145931 | 28 | 214 | 0.0 | 4.8 | 0.00 | 1.22 | 0.00 | 86 | 1010.9 |
| 20260904145714 | 28 | 216 | 0.0 | 4.8 | 0.00 | 1.22 | 0.00 | 86 | 1011.0 |
| 20260904145520 | 28 | 214 | 0.0 | 4.8 | 0.00 | 1.22 | 0.00 | 86 | 1011.0 |
| 20260904145416 | 28 | 214 | 0.0 | 4.8 | 0.00 | 1.22 | 0.00 | 86 | 1010.9 |
| 20260904145318 | 28 | 214 | 0.0 | 4.8 | 0.00 | 1.22 | 0.00 | 86 | 1010.9 |
| 20260904145118 | 28 | 214 | 0.0 | 4.8 | 0.00 | 1.22 | 0.00 | 86 | 1011.0 |
| 20260904144935 | 27 | 214 | 0.0 | 3.2 | 0.00 | 1.22 | 0.00 | 88 | 1010.9 |
| 20260904144918 | 28 | 214 | 0.0 | 4.8 | 0.00 | 1.22 | 0.00 | 86 | 1011.0 |
| 20260904144515 | 27 | 213 | 0.0 | 1.6 | 0.00 | 1.22 | 0.00 | 88 | 1010.9 |
| 20260904144416 | 27 | 213 | 0.0 | 0.0 | 0.00 | 1.22 | 0.00 | 88 | 1010.9 |
| 20260904144319 | 27 | 213 | 0.0 | 0.0 | 0.00 | 1.22 | 0.00 | 88 | 1011.0 |
| 20260904144117 | 27 | 213 | 0.0 | 1.6 | 0.00 | 1.22 | 0.00 | 89 | 1011.0 |
| 20260904143918 | 27 | 216 | 0.0 | 1.6 | 0.00 | 1.22 | 0.00 | 89 | 1010.9 |
| 20260904143716 | 27 | 216 | 0.0 | 1.6 | 0.00 | 1.22 | 0.00 | 89 | 1011.0 |
| 20260904143555 | 27 | 216 | 0.0 | 4.8 | 0.00 | 1.22 | 0.00 | 89 | 1011.0 |
| 20260904143515 | 27 | 214 | 0.0 | 1.6 | 0.00 | 1.22 | 0.00 | 89 | 1010.9 |
| 20260904143438 | 27 | 214 | 0.0 | 1.6 | 0.00 | 1.22 | 0.00 | 89 | 1011.0 |
| 20260904143116 | 26 | 216 | 0.0 | 6.4 | 0.00 | 1.22 | 0.00 | 90 | 1010.9 |
| 20260904142931 | 26 | 214 | 0.0 | 6.4 | 0.00 | 1.22 | 0.00 | 90 | 1011.0 |
| 20260904142721 | 26 | 216 | 0.0 | 6.4 | 0.00 | 1.22 | 0.00 | 90 | 1010.9 |
| 20260904142517 | 26 | 216 | 0.0 | 6.4 | 0.00 | 1.22 | 0.00 | 90 | 1011.0 |
| 20260904142425 | 26 | 216 | 0.0 | 6.4 | 0.00 | 1.22 | 0.00 | 90 | 1011.0 |
| 20260904142318 | 26 | 216 | 0.0 | 6.4 | 0.00 | 1.22 | 0.00 | 90 | 1011.0 |
| 20260904142200 | 26 | 214 | 0.0 | 4.8 | 0.00 | 1.22 | 0.00 | 90 | 1010.8 |
| 20260904142152 | 26 | 214 | 0.0 | 4.8 | 0.00 | 1.22 | 0.00 | 90 | 1011.0 |
| 20260904142128 | 26 | 214 | 0.0 | 4.8 | 0.00 | 1.22 | 0.00 | 90 | 1010.9 |
| 20260904141718 | 26 | 216 | 0.0 | 1.6 | 0.00 | 1.22 | 0.00 | 92 | 1011.0 |
| 20260904141517 | 26 | 213 | 0.0 | 1.6 | 0.00 | 1.22 | 0.00 | 92 | 1011.0 |
| 20260904141412 | 26 | 213 | 0.0 | 1.6 | 0.00 | 1.22 | 0.00 | 92 | 1010.8 |
| 20260904141321 | -17 | 0.0 | 0.0 | 0.00 | 0.00 | 0.00 | 1010.9 | ||
| 20260904141308 | 26 | 214 | 0.0 | 1.6 | 0.00 | 1.22 | 0.00 | 92 | 1010.9 |
| 20260904141145 | -17 | 0.0 | 0.0 | 0.00 | 0.00 | 0.00 | 1010.9 | ||
| 20260904141137 | -17 | 214 | 0.0 | 0.0 | 0.00 | 1.22 | 0.00 | 1010.8 | |
| 20260904140604 | -17 | 0.0 | 0.0 | 0.00 | 0.00 | 0.00 | |||
| 20260904140402 | -17 | 0.0 | 0.0 | 0.00 | 0.00 | 0.00 | |||
| 20260904140306 | -17 | 0.0 | 0.0 | 0.00 | 0.00 | 0.00 | |||
| 20260904140207 | -17 | 0.0 | 0.0 | 0.00 | 0.00 | 0.00 | |||
| 20260904140041 | -17 | 0.0 | 0.0 | 0.00 | 0.00 | 0.00 | |||
| 20260904140019 | -17 | 0.0 | 0.0 | 0.00 | 0.00 | 0.00 | |||
| 20260904135639 | -17 | 0.0 | 0.0 | 0.00 | 0.00 | 0.00 | |||
| 20260904135435 | -17 | 0.0 | 0.0 | 0.00 | 0.00 | 0.00 | 1011.0 | ||
| 20260904135305 | -17 | 0.0 | 0.0 | 0.00 | 0.00 | 0.00 | 1011.0 | ||
| 20260904135135 | -17 | 0.0 | 0.0 | 0.00 | 0.00 | 0.00 | 1011.0 | ||
| 20260904134934 | -17 | 0.0 | 0.0 | 0.00 | 0.00 | 0.00 | 1011.0 | ||
| 20260904134802 | -17 | 0.0 | 0.0 | 0.00 | 0.00 | 0.00 | 1011.0 | ||
| 20260904134707 | -17 | 0.0 | 0.0 | 0.00 | 0.00 | 0.00 | 1011.0 | ||
| 20260904134505 | -17 | 0.0 | 0.0 | 0.00 | 0.00 | 0.00 | 1010.9 | ||
| 20260904134308 | -17 | 0.0 | 0.0 | 0.00 | 0.00 | 0.00 | 1010.8 | ||
| 20260904134134 | -17 | 0.0 | 0.0 | 0.00 | 1.22 | 0.00 | |||
| 20260904133836 | -17 | 0.0 | 0.0 | 0.00 | 1.22 | 0.00 | |||
| 20260904133735 | -17 | 0.0 | 0.0 | 0.00 | 1.22 | 0.00 | |||
| 20260904133636 | -17 | 0.0 | 0.0 | 0.00 | 1.22 | 0.00 | |||
| 20260904133434 | -17 | 0.0 | 0.0 | 0.00 | 1.22 | 0.00 | |||
| 20260904133211 | -17 | 0.0 | 0.0 | 0.00 | 1.22 | 0.00 | |||
| 20260904133106 | -17 | 0.0 | 0.0 | 0.00 | 1.22 | 0.00 | 1010.7 | ||
| 20260904132905 | -17 | 0.0 | 0.0 | 0.00 | 1.22 | 0.00 | 1010.7 | ||
| 20260904132730 | -17 | 0.0 | 0.0 | 0.00 | 1.22 | 0.00 | 1010.7 | ||
| 20260904132535 | -17 | 0.0 | 0.0 | 0.00 | 1.22 | 0.00 | 1010.7 | ||
| 20260904132336 | 23 | 175 | 0.0 | 0.0 | 0.00 | 1.22 | 0.00 | 98 | 1010.7 |
| 20260904132204 | 23 | 175 | 0.0 | 0.0 | 0.00 | 1.22 | 0.00 | 98 | 1010.7 |
| 20260904132137 | 23 | 175 | 0.0 | 1.6 | 0.00 | 1.22 | 0.00 | 98 | 1010.7 |
| 20260904131923 | 23 | 175 | 0.0 | 1.6 | 0.00 | 1.22 | 0.00 | 98 | 1010.8 |
| 20260904131723 | 23 | 175 | 0.0 | 1.6 | 0.00 | 1.22 | 0.00 | 98 | 1010.8 |
| 20260904131705 | 23 | 175 | 0.0 | 1.6 | 0.00 | 1.22 | 0.00 | 98 | 1010.9 |
| 20260904131622 | 23 | 175 | 0.0 | 1.6 | 0.00 | 1.22 | 0.00 | 98 | 1010.9 |
| 20260904131422 | 23 | 175 | 0.0 | 1.6 | 0.00 | 1.22 | 0.00 | 98 | 1010.8 |
| 20260904131203 | 23 | 178 | 0.0 | 1.6 | 0.00 | 1.22 | 0.00 | 98 | 1010.8 |
| 20260904131123 | 23 | 141 | 0.0 | 0.0 | 0.00 | 1.22 | 0.00 | 98 | 1010.8 |
| 20260904130923 | 23 | 141 | 0.0 | 0.0 | 0.00 | 1.22 | 0.00 | 98 | 1010.8 |
| 20260904130725 | 23 | 140 | 0.0 | 0.0 | 0.00 | 1.22 | 0.00 | 98 | 1010.7 |
| 20260904130702 | 23 | 141 | 0.0 | 0.0 | 0.00 | 1.22 | 0.00 | 98 | 1010.7 |
| 20260904130523 | 23 | 141 | 0.0 | 0.0 | 0.00 | 1.22 | 0.00 | 98 | 1010.8 |
| 20260904130322 | -17 | 140 | 0.0 | 0.0 | 0.00 | 1.22 | 0.00 | 1010.9 | |
| 20260904130210 | -17 | 141 | 0.0 | 0.0 | 0.00 | 1.22 | 0.00 | 1010.7 | |
| 20260904130202 | -17 | 141 | 0.0 | 0.0 | 0.00 | 1.22 | 0.00 | 1010.9 | |
| 20260904130001 | -17 | 141 | 0.0 | 0.0 | 0.00 | 1.22 | 0.00 | 1010.5 | |
| 20260904125709 | -17 | 0.0 | 0.0 | 0.00 | 0.00 | 0.00 | 1010.7 | ||
| 20260904125331 | -17 | 0.0 | 0.0 | 0.00 | 1.22 | 0.00 | |||
| 20260904125306 | -17 | 0.0 | 0.0 | 0.00 | 1.22 | 0.00 | |||
| 20260904125031 | -17 | 0.0 | 0.0 | 0.00 | 1.22 | 0.00 | |||
| 20260904124805 | -17 | 0.0 | 0.0 | 0.00 | 1.22 | 0.00 | |||
| 20260904124604 | -17 | 0.0 | 0.0 | 0.00 | 1.22 | 0.00 | |||
| 20260904124411 | -17 | 0.0 | 0.0 | 0.00 | 1.22 | 0.00 | |||
| 20260904124233 | -17 | 0.0 | 0.0 | 0.00 | 1.22 | 0.00 | 1010.4 | ||
| 20260904124003 | -17 | 0.0 | 0.0 | 0.00 | 1.22 | 0.00 | 1010.4 | ||
| 20260904123849 | 22 | 127 | 0.0 | 0.0 | 0.00 | 1.22 | 0.00 | 97 | 1010.4 |
| 20260904123746 | 22 | 127 | 0.0 | 0.0 | 0.00 | 1.22 | 0.00 | 97 | 1010.4 |
| 20260904123531 | 22 | 127 | 0.0 | 0.0 | 0.00 | 1.22 | 0.00 | 97 | 1010.4 |
| 20260904123320 | 22 | 127 | 0.0 | 0.0 | 0.00 | 1.22 | 0.00 | 97 | 1010.4 |
| 20260904123230 | 22 | 127 | 0.0 | 0.0 | 0.00 | 1.22 | 0.00 | 97 | 1010.3 |
| 20260904123116 | 22 | 127 | 0.0 | 0.0 | 0.00 | 1.22 | 0.00 | 97 | 1010.4 |
| 20260904122904 | 22 | 127 | 0.0 | 0.0 | 0.00 | 1.22 | 0.00 | 97 | 1010.3 |
| 20260904122800 | 22 | 125 | 0.0 | 0.0 | 0.00 | 1.22 | 0.00 | 97 | 1010.2 |
| 20260904122731 | 22 | 125 | 0.0 | 0.0 | 0.00 | 1.22 | 0.00 | 97 | 1010.3 |
| 20260904122504 | 22 | 125 | 0.0 | 0.0 | 0.00 | 1.22 | 0.00 | 97 | 1010.2 |
| 20260904122404 | 22 | 125 | 0.0 | 0.0 | 0.00 | 1.22 | 0.00 | 97 | 1010.3 |
| 20260904122217 | 22 | 127 | 0.0 | 0.0 | 0.00 | 1.22 | 0.00 | 97 | 1010.3 |
| 20260904122106 | 22 | 127 | 0.0 | 0.0 | 0.00 | 1.22 | 0.00 | 97 | 1010.3 |
| 20260904121905 | 22 | 127 | 0.0 | 0.0 | 0.00 | 1.22 | 0.00 | 97 | 1010.1 |
| 20260904121708 | 22 | 127 | 0.0 | 0.0 | 0.00 | 1.22 | 0.00 | 97 | 1010.2 |
| 20260904121613 | 22 | 125 | 0.0 | 0.0 | 0.00 | 1.22 | 0.00 | 97 | 1010.1 |
| 20260904121518 | 22 | 127 | 0.0 | 0.0 | 0.00 | 1.22 | 0.00 | 97 | 1010.2 |
| 20260904121447 | 22 | 127 | 0.0 | 0.0 | 0.00 | 1.22 | 0.00 | 97 | 1010.2 |
| 20260904121107 | 22 | 127 | 0.0 | 0.0 | 0.00 | 1.22 | 0.00 | 97 | 1010.0 |
| 20260904120902 | 22 | 127 | 0.0 | 0.0 | 0.00 | 1.22 | 0.00 | 97 | 1010.1 |
| 20260904120703 | 22 | 127 | 0.0 | 0.0 | 0.00 | 1.22 | 0.00 | 97 | 1010.0 |
| 20260904120604 | 22 | 127 | 0.0 | 0.0 | 0.00 | 1.22 | 0.00 | 97 | 1010.1 |
| 20260904120440 | 22 | 127 | 0.0 | 0.0 | 0.00 | 1.22 | 0.00 | 97 | 1010.1 |
| 20260904120154 | 22 | 125 | 0.0 | 0.0 | 0.00 | 1.22 | 0.00 | 97 | 1010.1 |
| 20260904115855 | 22 | 127 | 0.0 | 0.0 | 0.00 | 1.22 | 0.00 | 97 | 1010.0 |
| 20260904115708 | 22 | 127 | 0.0 | 0.0 | 0.00 | 1.22 | 0.00 | 97 | 1009.8 |
| 20260904115657 | 22 | 127 | 0.0 | 0.0 | 0.00 | 1.22 | 0.00 | 97 | 1009.8 |
| 20260904115513 | 22 | 127 | 0.0 | 0.0 | 0.00 | 1.22 | 0.00 | 97 | 1009.9 |
| 20260904115502 | 22 | 127 | 0.0 | 0.0 | 0.00 | 1.22 | 0.00 | 97 | 1009.9 |
| 20260904115429 | 22 | 127 | 0.0 | 0.0 | 0.00 | 1.22 | 0.00 | 97 | 1009.9 |
| 20260904115127 | 22 | 127 | 0.0 | 0.0 | 0.00 | 1.22 | 0.00 | 97 | 1010.0 |
| 20260904114834 | 22 | 157 | 0.0 | 0.0 | 0.00 | 1.22 | 0.00 | 97 | 1010.0 |
| 20260904114739 | 22 | 158 | 0.0 | 0.0 | 0.00 | 1.22 | 0.00 | 97 | 1010.0 |
| 20260904114706 | 22 | 158 | 0.0 | 0.0 | 0.00 | 1.22 | 0.00 | 97 | 1010.0 |
| 20260904114426 | 22 | 159 | 0.0 | 0.0 | 0.00 | 1.22 | 0.00 | 97 | 1009.8 |
| 20260904114227 | 22 | 158 | 0.0 | 0.0 | 0.00 | 1.22 | 0.00 | 97 | 1009.9 |
| 20260904114207 | 22 | 158 | 0.0 | 0.0 | 0.00 | 1.22 | 0.00 | 97 | 1009.8 |
| 20260904114024 | 22 | 158 | 0.0 | 0.0 | 0.00 | 1.22 | 0.00 | 97 | 1009.7 |
| 20260904113820 | 22 | 158 | 0.0 | 0.0 | 0.00 | 1.22 | 0.00 | 97 | 1009.8 |
| 20260904113709 | 22 | 157 | 0.0 | 0.0 | 0.00 | 1.22 | 0.00 | 97 | 1009.7 |
| 20260904113619 | 22 | 157 | 0.0 | 0.0 | 0.00 | 1.22 | 0.00 | 97 | 1009.7 |
| 20260904113507 | 22 | 158 | 0.0 | 0.0 | 0.00 | 1.22 | 0.00 | 97 | 1009.9 |
| 20260904113454 | 22 | 158 | 0.0 | 0.0 | 0.00 | 1.22 | 0.00 | 97 | 1009.8 |
| 20260904113427 | 22 | 159 | 0.0 | 0.0 | 0.00 | 1.22 | 0.00 | 97 | 1009.9 |
| 20260904113015 | 22 | 158 | 0.0 | 0.0 | 0.00 | 1.22 | 0.00 | 97 | 1010.0 |
| 20260904112815 | 22 | 158 | 0.0 | 0.0 | 0.00 | 1.22 | 0.00 | 97 | 1009.9 |
| 20260904112726 | 22 | 158 | 0.0 | 0.0 | 0.00 | 1.27 | 0.00 | 97 | 1009.7 |
| 20260904112707 | 22 | 158 | 0.0 | 0.0 | 0.00 | 1.22 | 0.00 | 97 | 1009.8 |
| 20260904112606 | 22 | 158 | 0.0 | 0.0 | 0.00 | 1.24 | 0.00 | 97 | 1009.7 |
| 20260904112536 | 22 | 158 | 0.0 | 0.0 | 0.00 | 1.40 | 0.00 | 97 | 1009.7 |
| 20260904112203 | 22 | 158 | 0.0 | 0.0 | 0.00 | 1.40 | 0.00 | 97 | 1009.7 |
| 20260904112005 | 22 | 158 | 0.0 | 0.0 | 0.00 | 1.40 | 0.00 | 97 | 1009.8 |
| 20260904111807 | 22 | 158 | 0.0 | 0.0 | 0.00 | 1.40 | 0.00 | 96 | 1009.9 |
| 20260904111707 | 22 | 157 | 0.0 | 0.0 | 0.00 | 1.40 | 0.00 | 97 | 1009.9 |
| 20260904111607 | 22 | 158 | 0.0 | 0.0 | 0.00 | 1.40 | 0.00 | 96 | 1009.9 |
| 20260904111452 | 22 | 158 | 0.0 | 0.0 | 0.00 | 1.40 | 0.00 | 96 | 1009.8 |
| 20260904111448 | 22 | 158 | 0.0 | 0.0 | 0.00 | 1.40 | 0.00 | 96 | 1009.8 |
| 20260904111442 | 22 | 158 | 0.0 | 0.0 | 0.00 | 1.40 | 0.00 | 96 | 1009.8 |
| 20260904111034 | 23 | 158 | 0.0 | 0.0 | 0.00 | 1.40 | 0.00 | 97 | 1009.8 |
| 20260904110735 | 23 | 158 | 0.0 | 0.0 | 0.00 | 1.40 | 0.00 | 97 | 1009.9 |
| 20260904110707 | 23 | 158 | 0.0 | 0.0 | 0.00 | 1.40 | 0.00 | 97 | 1009.8 |
| 20260904110526 | 23 | 158 | 0.0 | 0.0 | 0.00 | 1.40 | 0.00 | 97 | 1009.8 |
| 20260904110449 | 23 | 158 | 0.0 | 0.0 | 0.00 | 1.40 | 0.00 | 97 | 1009.7 |
| 20260904110432 | 23 | 158 | 0.0 | 0.0 | 0.00 | 1.40 | 0.00 | 97 | 1009.8 |
| 20260904110123 | 23 | 158 | 0.0 | 0.0 | 0.00 | 1.40 | 0.00 | 97 | 1009.7 |
| 20260904105922 | 23 | 158 | 0.0 | 0.0 | 0.00 | 1.40 | 0.00 | 97 | 1009.7 |
| 20260904105827 | 23 | 157 | 0.0 | 0.0 | 0.00 | 1.40 | 0.00 | 97 | 1009.7 |
| 20260904105705 | 23 | 158 | 0.0 | 0.0 | 0.00 | 1.40 | 0.00 | 97 | 1009.7 |
| 20260904105522 | 23 | 158 | 0.0 | 0.0 | 0.00 | 1.40 | 0.00 | 97 | 1009.8 |
| 20260904105321 | 23 | 158 | 0.0 | 0.0 | 0.00 | 1.40 | 0.00 | 97 | 1009.7 |
| 20260904105201 | 23 | 158 | 0.0 | 0.0 | 0.00 | 1.40 | 0.00 | 97 | 1009.7 |
| 20260904105126 | 22 | 158 | 0.0 | 0.0 | 0.00 | 1.40 | 0.00 | 97 | 1009.8 |
| 20260904105118 | 23 | 159 | 0.0 | 0.0 | 0.00 | 1.40 | 0.00 | 97 | 1009.7 |
| 20260904104716 | 22 | 158 | 0.0 | 0.0 | 0.00 | 1.40 | 0.00 | 97 | 1009.8 |
| 20260904104701 | 22 | 157 | 0.0 | 0.0 | 0.00 | 1.40 | 0.00 | 97 | 1009.7 |
| 20260904104514 | 22 | 158 | 0.0 | 0.0 | 0.00 | 1.40 | 0.00 | 97 | 1009.7 |
| 20260904104313 | 22 | 158 | 0.0 | 0.0 | 0.00 | 1.40 | 0.00 | 97 | 1009.7 |
| 20260904104203 | 22 | 157 | 0.0 | 0.0 | 0.00 | 1.40 | 0.00 | 97 | 1009.7 |
| 20260904104109 | 22 | 159 | 0.0 | 0.0 | 0.00 | 1.40 | 0.00 | 97 | 1009.7 |
| 20260904103909 | 22 | 158 | 0.0 | 0.0 | 0.00 | 1.40 | 0.00 | 96 | 1009.7 |
| 20260904103714 | 22 | 157 | 0.0 | 0.0 | 0.00 | 1.40 | 0.00 | 97 | 1009.8 |
| 20260904103701 | 22 | 157 | 0.0 | 0.0 | 0.00 | 1.40 | 0.00 | 96 | 1009.8 |
| 20260904103305 | 22 | 158 | 0.0 | 0.0 | 0.00 | 1.40 | 0.00 | 97 | 1009.8 |
| 20260904103202 | 22 | 158 | 0.0 | 0.0 | 0.00 | 1.40 | 0.00 | 97 | 1009.7 |
| 20260904103106 | 22 | 157 | 0.0 | 0.0 | 0.00 | 1.40 | 0.00 | 97 | 1009.8 |
| 20260904102855 | 22 | 157 | 0.0 | 0.0 | 0.00 | 1.40 | 0.00 | 97 | 1009.8 |
| 20260904102632 | 22 | 157 | 0.0 | 0.0 | 0.00 | 1.40 | 0.00 | 96 | 1009.9 |
| 20260904102431 | 22 | 157 | 0.0 | 0.0 | 0.00 | 1.40 | 0.00 | 96 | 1009.9 |
| 20260904102246 | 22 | 157 | 0.0 | 0.0 | 0.00 | 1.40 | 0.00 | 97 | 1009.8 |
| 20260904102231 | 22 | 157 | 0.0 | 0.0 | 0.00 | 1.40 | 0.00 | 97 | 1009.9 |
| 20260904102144 | 22 | 157 | 0.0 | 0.0 | 0.00 | 1.40 | 0.00 | 97 | 1009.8 |
| 20260904101921 | 22 | 157 | 0.0 | 0.0 | 0.00 | 1.40 | 0.00 | 96 | 1009.8 |
| 20260904101911 | 22 | 157 | 0.0 | 0.0 | 0.00 | 1.40 | 0.00 | 97 | 1009.8 |
| 20260904101620 | 22 | 155 | 0.0 | 0.0 | 0.00 | 1.40 | 0.00 | 96 | 1009.8 |
| 20260904101434 | 22 | 157 | 0.0 | 0.0 | 0.00 | 1.40 | 0.00 | 96 | 1009.6 |
| 20260904101426 | 22 | 157 | 0.0 | 0.0 | 0.00 | 1.40 | 0.00 | 96 | 1009.7 |
| 20260904101358 | 22 | 157 | 0.0 | 0.0 | 0.00 | 1.40 | 0.00 | 96 | 1009.7 |
| 20260904101120 | 22 | 157 | 0.0 | 0.0 | 0.00 | 1.40 | 0.00 | 96 | 1009.6 |
| 20260904100816 | 22 | 158 | 0.0 | 0.0 | 0.00 | 1.40 | 0.00 | 96 | 1009.6 |
| 20260904100636 | 22 | 158 | 0.0 | 0.0 | 0.00 | 1.40 | 0.00 | 96 | 1009.7 |
| 20260904100618 | 22 | 157 | 0.0 | 0.0 | 0.00 | 1.40 | 0.00 | 96 | 1009.6 |
| 20260904100428 | 22 | 157 | 0.0 | 0.0 | 0.00 | 1.40 | 0.00 | 97 | 1009.6 |
| 20260904100421 | 22 | 158 | 0.0 | 0.0 | 0.00 | 1.40 | 0.00 | 96 | 1009.6 |
| 20260904100357 | 22 | 157 | 0.0 | 0.0 | 0.00 | 1.40 | 0.00 | 97 | 1009.6 |
| 20260904100116 | 22 | 157 | 0.0 | 0.0 | 0.00 | 1.40 | 0.00 | 97 | 1009.6 |
| 20260904095749 | 22 | 158 | 0.0 | 0.0 | 0.00 | 1.40 | 0.00 | 97 | 1009.6 |
| 20260904095644 | 22 | 157 | 0.0 | 0.0 | 0.00 | 1.40 | 0.00 | 96 | 1009.6 |
| 20260904095629 | 22 | 158 | 0.0 | 0.0 | 0.00 | 1.40 | 0.00 | 96 | 1009.6 |
| 20260904095425 | 22 | 157 | 0.0 | 0.0 | 0.00 | 1.40 | 0.00 | 96 | 1009.6 |
| 20260904095413 | 22 | 155 | 0.0 | 0.0 | 0.00 | 1.40 | 0.00 | 97 | 1009.6 |
| 20260904095345 | 22 | 157 | 0.0 | 0.0 | 0.00 | 1.40 | 0.00 | 96 | 1009.6 |
| 20260904094941 | 22 | 158 | 0.0 | 0.0 | 0.00 | 1.40 | 0.00 | 96 | 1009.7 |
| 20260904094738 | 22 | 158 | 0.0 | 0.0 | 0.00 | 1.40 | 0.00 | 96 | 1009.7 |
| 20260904094642 | 22 | 158 | 0.0 | 0.0 | 0.00 | 1.40 | 0.00 | 96 | 1009.7 |
| 20260904094629 | 22 | 157 | 0.0 | 0.0 | 0.00 | 1.40 | 0.00 | 96 | 1009.7 |
| 20260904094426 | 22 | 157 | 0.0 | 0.0 | 0.00 | 1.40 | 0.00 | 96 | 1009.7 |
| 20260904094411 | 22 | 157 | 0.0 | 0.0 | 0.00 | 1.40 | 0.00 | 96 | 1009.7 |
| 20260904093939 | 22 | 157 | 0.0 | 0.0 | 0.00 | 1.40 | 0.00 | 96 | 1009.6 |
| 20260904093741 | 22 | 157 | 0.0 | 0.0 | 0.00 | 1.40 | 0.00 | 96 | 1009.5 |
| 20260904093630 | 22 | 158 | 0.0 | 0.0 | 0.00 | 1.40 | 0.00 | 96 | 1009.5 |
| 20260904093533 | 22 | 158 | 0.0 | 0.0 | 0.00 | 1.40 | 0.00 | 96 | 1009.5 |
| 20260904093436 | 22 | 159 | 0.0 | 0.0 | 0.00 | 1.40 | 0.00 | 96 | 1009.4 |
| 20260904093421 | 22 | 157 | 0.0 | 0.0 | 0.00 | 1.40 | 0.00 | 96 | 1009.5 |
| 20260904093347 | 22 | 159 | 0.0 | 0.0 | 0.00 | 1.40 | 0.00 | 96 | 1009.4 |
| 20260904092932 | 22 | 157 | 0.0 | 0.0 | 0.00 | 1.40 | 0.00 | 96 | 1009.5 |
| 20260904092833 | 22 | 157 | 0.0 | 0.0 | 0.00 | 1.40 | 0.00 | 96 | 1009.5 |
| 20260904092630 | 22 | 155 | 0.0 | 0.0 | 0.00 | 1.40 | 0.00 | 96 | 1009.5 |
| 20260904092541 | 22 | 158 | 0.0 | 0.0 | 0.00 | 1.40 | 0.00 | 96 | 1009.4 |
| 20260904092534 | 22 | 157 | 0.0 | 0.0 | 0.00 | 1.40 | 0.00 | 96 | 1009.5 |
| 20260904092437 | 22 | 155 | 0.0 | 0.0 | 0.00 | 1.40 | 0.00 | 96 | 1009.4 |
| 20260904092346 | 22 | 155 | 0.0 | 0.0 | 0.00 | 1.40 | 0.00 | 96 | 1009.4 |
| 20260904091933 | 22 | 157 | 0.0 | 0.0 | 0.00 | 1.40 | 0.00 | 96 | 1009.4 |
| 20260904091716 | 22 | 157 | 0.0 | 0.0 | 0.00 | 1.40 | 0.00 | 96 | 1009.4 |
| 20260904091628 | 22 | 157 | 0.0 | 0.0 | 0.00 | 1.40 | 0.00 | 96 | 1009.5 |
| 20260904091528 | 22 | 158 | 0.0 | 0.0 | 0.00 | 1.40 | 0.00 | 96 | 1009.5 |
| 20260904091524 | 22 | 157 | 0.0 | 0.0 | 0.00 | 1.40 | 0.00 | 96 | 1009.4 |
| 20260904091415 | 22 | 157 | 0.0 | 0.0 | 0.00 | 1.40 | 0.00 | 96 | 1009.5 |
| 20260904091114 | 22 | 157 | 0.0 | 0.0 | 0.00 | 1.40 | 0.00 | 96 | 1009.5 |
| 20260904091015 | 22 | 157 | 0.0 | 0.0 | 0.00 | 1.40 | 0.00 | 96 | 1009.5 |
| 20260904090714 | 22 | 158 | 0.0 | 0.0 | 0.00 | 1.40 | 0.00 | 96 | 1009.4 |
| 20260904090629 | 22 | 158 | 0.0 | 0.0 | 0.00 | 1.40 | 0.00 | 96 | 1009.4 |
| 20260904090513 | 22 | 157 | 0.0 | 0.0 | 0.00 | 1.40 | 0.00 | 96 | 1009.4 |
| 20260904090315 | 22 | 159 | 0.0 | 0.0 | 0.00 | 1.40 | 0.00 | 96 | 1009.4 |
| 20260904090115 | 22 | 157 | 0.0 | 0.0 | 0.00 | 1.40 | 0.00 | 96 | 1009.4 |
| 20260904090012 | 22 | 157 | 0.0 | 0.0 | 0.00 | 1.40 | 0.00 | 96 | 1009.4 |
| 20260904085713 | 22 | 158 | 0.0 | 0.0 | 0.00 | 1.40 | 0.00 | 96 | 1009.4 |
| 20260904085624 | 22 | 157 | 0.0 | 0.0 | 0.00 | 1.40 | 0.00 | 96 | 1009.3 |
| 20260904085615 | 22 | 157 | 0.0 | 0.0 | 0.00 | 1.40 | 0.00 | 96 | 1009.4 |
| 20260904085315 | 22 | 157 | 0.0 | 0.0 | 0.00 | 1.40 | 0.00 | 96 | 1009.4 |
| 20260904085215 | 23 | 155 | 0.0 | 0.0 | 0.00 | 1.40 | 0.00 | 96 | 1009.4 |
| 20260904085114 | 23 | 155 | 0.0 | 0.0 | 0.00 | 1.40 | 0.00 | 96 | 1009.4 |
| 20260904084924 | 22 | 158 | 0.0 | 0.0 | 0.00 | 1.40 | 0.00 | 96 | 1009.4 |
| 20260904084717 | 22 | 158 | 0.0 | 0.0 | 0.00 | 1.40 | 0.00 | 95 | 1009.4 |
| 20260904084613 | 23 | 157 | 0.0 | 0.0 | 0.00 | 1.40 | 0.00 | 95 | 1009.3 |
| 20260904084530 | 23 | 158 | 0.0 | 0.0 | 0.00 | 1.40 | 0.00 | 95 | 1009.3 |
| 20260904084316 | 23 | 157 | 0.0 | 0.0 | 0.00 | 1.40 | 0.00 | 95 | 1009.3 |
| 20260904084117 | 23 | 158 | 0.0 | 0.0 | 0.00 | 1.40 | 0.00 | 95 | 1009.3 |
| 20260904084022 | 23 | 157 | 0.0 | 0.0 | 0.00 | 1.40 | 0.00 | 95 | 1009.2 |
| 20260904083822 | 23 | 157 | 0.0 | 0.0 | 0.00 | 1.40 | 0.00 | 96 | 1009.2 |
| 20260904083615 | 23 | 155 | 0.0 | 0.0 | 0.00 | 1.40 | 0.00 | 96 | 1009.3 |
| 20260904083517 | 23 | 157 | 0.0 | 0.0 | 0.00 | 1.40 | 0.00 | 96 | 1009.2 |
| 20260904083316 | 23 | 158 | 0.0 | 0.0 | 0.00 | 1.40 | 0.00 | 96 | 1009.3 |
| 20260904083118 | 23 | 158 | 0.0 | 0.0 | 0.00 | 1.40 | 0.00 | 96 | 1009.2 |
| 20260904082921 | 23 | 157 | 0.0 | 0.0 | 0.00 | 1.40 | 0.00 | 95 | 1009.2 |
| 20260904082721 | 23 | 157 | 0.0 | 0.0 | 0.00 | 1.40 | 0.00 | 95 | 1009.2 |
| 20260904082627 | 23 | 158 | 0.0 | 0.0 | 0.00 | 1.40 | 0.00 | 95 | 1009.2 |
| 20260904082618 | 23 | 157 | 0.0 | 0.0 | 0.00 | 1.40 | 0.00 | 95 | 1009.2 |
| 20260904082418 | 23 | 158 | 0.0 | 0.0 | 0.00 | 1.40 | 0.00 | 95 | 1009.3 |
| 20260904082120 | 23 | 158 | 0.0 | 0.0 | 0.00 | 1.40 | 0.00 | 95 | 1009.2 |
| 20260904081918 | 23 | 157 | 0.0 | 0.0 | 0.00 | 1.40 | 0.00 | 95 | 1009.2 |
| 20260904081721 | 23 | 157 | 0.0 | 0.0 | 0.00 | 1.40 | 0.00 | 95 | 1009.2 |
| 20260904081617 | 23 | 158 | 0.0 | 0.0 | 0.00 | 1.40 | 0.00 | 95 | 1009.1 |
| 20260904081525 | 23 | 158 | 0.0 | 0.0 | 0.00 | 1.40 | 0.00 | 95 | 1009.1 |
| 20260904081318 | 23 | 155 | 0.0 | 0.0 | 0.00 | 1.40 | 0.00 | 95 | 1009.2 |
| 20260904081118 | 23 | 157 | 0.0 | 0.0 | 0.00 | 1.40 | 0.00 | 95 | 1009.2 |
| 20260904081036 | 23 | 157 | 0.0 | 0.0 | 0.00 | 1.40 | 0.00 | 95 | 1009.1 |
| 20260904080722 | 23 | 157 | 0.0 | 0.0 | 0.00 | 1.40 | 0.00 | 95 | 1009.1 |
| 20260904080618 | 23 | 157 | 0.0 | 0.0 | 0.00 | 1.40 | 0.00 | 95 | 1009.2 |
| 20260904080517 | 23 | 157 | 0.0 | 0.0 | 0.00 | 1.40 | 0.00 | 95 | 1009.1 |
| 20260904080318 | 23 | 158 | 0.0 | 0.0 | 0.00 | 1.40 | 0.00 | 95 | 1009.1 |
| 20260904080119 | 23 | 157 | 0.0 | 0.0 | 0.00 | 1.40 | 0.00 | 95 | 1009.1 |
| 20260904080025 | 23 | 157 | 0.0 | 0.0 | 0.00 | 1.40 | 0.00 | 95 | 1009.1 |
| 20260904075716 | 23 | 157 | 0.0 | 0.0 | 0.00 | 1.40 | 0.00 | 95 | 1009.1 |
| 20260904075627 | 23 | 157 | 0.0 | 0.0 | 0.00 | 1.40 | 0.00 | 95 | 1009.1 |
| 20260904075614 | 23 | 157 | 0.0 | 0.0 | 0.00 | 1.40 | 0.00 | 95 | 1009.1 |
| 20260904075318 | 23 | 157 | 0.0 | 0.0 | 0.00 | 1.40 | 0.00 | 95 | 1009.2 |
| 20260904075122 | 23 | 158 | 0.0 | 0.0 | 0.00 | 1.40 | 0.00 | 95 | 1009.2 |
| 20260904074917 | 23 | 159 | 0.0 | 0.0 | 0.00 | 1.40 | 0.00 | 94 | 1009.1 |
| 20260904074717 | 23 | 158 | 0.0 | 0.0 | 0.00 | 1.40 | 0.00 | 94 | 1009.2 |
| 20260904074619 | 23 | 158 | 0.0 | 0.0 | 0.00 | 1.40 | 0.00 | 94 | 1009.2 |
| 20260904074602 | 23 | 158 | 0.0 | 0.0 | 0.00 | 1.40 | 0.00 | 94 | 1009.2 |
| 20260904074315 | 23 | 157 | 0.0 | 0.0 | 0.00 | 1.40 | 0.00 | 94 | 1009.1 |
| 20260904074220 | 23 | 157 | 0.0 | 0.0 | 0.00 | 1.40 | 0.00 | 94 | 1009.1 |
| 20260904074101 | 23 | 158 | 0.0 | 0.0 | 0.00 | 1.40 | 0.00 | 94 | 1009.1 |
| 20260904073919 | 23 | 157 | 0.0 | 0.0 | 0.00 | 1.40 | 0.00 | 94 | 1009.1 |
| 20260904073719 | 23 | 157 | 0.0 | 0.0 | 0.00 | 1.40 | 0.00 | 94 | 1009.1 |
| 20260904073601 | 23 | 157 | 0.0 | 0.0 | 0.00 | 1.40 | 0.00 | 94 | 1009.1 |
| 20260904073521 | 23 | 158 | 0.0 | 0.0 | 0.00 | 1.40 | 0.00 | 94 | 1009.1 |
| 20260904073320 | 23 | 157 | 0.0 | 0.0 | 0.00 | 1.40 | 0.00 | 94 | 1009.2 |
| 20260904073223 | 23 | 155 | 0.0 | 0.0 | 0.00 | 1.40 | 0.00 | 94 | 1009.1 |
| 20260904073101 | 23 | 158 | 0.0 | 0.0 | 0.00 | 1.40 | 0.00 | 94 | 1009.2 |
| 20260904072918 | 23 | 158 | 0.0 | 0.0 | 0.00 | 1.40 | 0.00 | 94 | 1009.1 |
| 20260904072903 | 23 | 158 | 0.0 | 0.0 | 0.00 | 1.40 | 0.00 | 94 | 1009.1 |
| 20260904072858 | 23 | 157 | 0.0 | 0.0 | 0.00 | 1.40 | 0.00 | 94 | 1009.1 |
| 20260904072832 | 23 | 157 | 0.0 | 0.0 | 0.00 | 1.40 | 0.00 | 94 | 1009.2 |
| 20260904072323 | 23 | 157 | 0.0 | 0.0 | 0.00 | 1.40 | 0.00 | 94 | 1009.1 |
| 20260904072218 | 23 | 157 | 0.0 | 0.0 | 0.00 | 1.40 | 0.00 | 94 | 1009.1 |
| 20260904072101 | 23 | 158 | 0.0 | 0.0 | 0.00 | 1.40 | 0.00 | 94 | 1009.1 |
| 20260904071917 | 24 | 158 | 0.0 | 0.0 | 0.00 | 1.40 | 0.00 | 94 | 1009.1 |
| 20260904071859 | 24 | 158 | 0.0 | 0.0 | 0.00 | 1.40 | 0.00 | 94 | 1009.1 |
| 20260904071834 | 24 | 157 | 0.0 | 0.0 | 0.00 | 1.40 | 0.00 | 94 | 1009.1 |
| 20260904071522 | 24 | 158 | 0.0 | 0.0 | 0.00 | 1.40 | 0.00 | 94 | 1009.1 |
| 20260904071318 | 24 | 157 | 0.0 | 0.0 | 0.00 | 1.40 | 0.00 | 94 | 1009.2 |
| 20260904071224 | 24 | 158 | 0.0 | 0.0 | 0.00 | 1.40 | 0.00 | 93 | 1009.1 |
| 20260904071100 | 24 | 157 | 0.0 | 0.0 | 0.00 | 1.40 | 0.00 | 93 | 1009.1 |
| 20260904070934 | 24 | 158 | 0.0 | 0.0 | 0.00 | 1.40 | 0.00 | 93 | 1009.2 |
| 20260904070917 | 24 | 158 | 0.0 | 0.0 | 0.00 | 1.40 | 0.00 | 93 | 1009.1 |
| 20260904070853 | 24 | 158 | 0.0 | 0.0 | 0.00 | 1.40 | 0.00 | 93 | 1009.1 |
| 20260904070533 | 24 | 158 | 0.0 | 0.0 | 0.00 | 1.40 | 0.00 | 93 | 1009.1 |
| 20260904070318 | 24 | 158 | 0.0 | 0.0 | 0.00 | 1.40 | 0.00 | 93 | 1009.2 |
| 20260904070118 | 24 | 158 | 0.0 | 0.0 | 0.00 | 1.40 | 0.00 | 93 | 1009.1 |
| 20260904070031 | 24 | 158 | 0.0 | 0.0 | 0.00 | 1.40 | 0.00 | 93 | 1009.1 |
| 20260904065916 | 24 | 157 | 0.0 | 0.0 | 0.00 | 1.40 | 0.00 | 93 | 1009.2 |
| 20260904065815 | 24 | 157 | 0.0 | 0.0 | 0.00 | 1.40 | 0.00 | 93 | 1009.2 |
| 20260904065523 | 24 | 157 | 0.0 | 0.0 | 0.00 | 1.40 | 0.00 | 93 | 1009.2 |
| 20260904065419 | 24 | 158 | 0.0 | 0.0 | 0.00 | 1.40 | 0.00 | 93 | 1009.2 |
| 20260904065116 | 24 | 157 | 0.0 | 0.0 | 0.00 | 1.40 | 0.00 | 93 | 1009.2 |
| 20260904065026 | 24 | 155 | 0.0 | 0.0 | 0.00 | 1.40 | 0.00 | 93 | 1009.1 |
| 20260904064918 | 24 | 158 | 0.0 | 0.0 | 0.00 | 1.40 | 0.00 | 93 | 1009.1 |
| 20260904064819 | 24 | 158 | 0.0 | 0.0 | 0.00 | 1.40 | 0.00 | 93 | 1009.1 |
| 20260904064522 | 24 | 157 | 0.0 | 0.0 | 0.00 | 1.40 | 0.00 | 93 | 1009.2 |
| 20260904064419 | 24 | 157 | 0.0 | 0.0 | 0.00 | 1.40 | 0.00 | 93 | 1009.1 |
| 20260904064116 | 25 | 155 | 0.0 | 0.0 | 0.00 | 1.40 | 0.00 | 93 | 1009.2 |
| 20260904064025 | 25 | 158 | 0.0 | 0.0 | 0.00 | 1.40 | 0.00 | 93 | 1009.2 |
| 20260904063919 | 24 | 157 | 0.0 | 0.0 | 0.00 | 1.40 | 0.00 | 93 | 1009.2 |
| 20260904063717 | 25 | 157 | 0.0 | 0.0 | 0.00 | 1.40 | 0.00 | 93 | 1009.2 |
| 20260904063525 | 25 | 158 | 0.0 | 0.0 | 0.00 | 1.40 | 0.00 | 93 | 1009.3 |
| 20260904063521 | 25 | 157 | 0.0 | 0.0 | 0.00 | 1.40 | 0.00 | 93 | 1009.3 |
| 20260904063421 | 25 | 158 | 0.0 | 0.0 | 0.00 | 1.40 | 0.00 | 93 | 1009.3 |
| 20260904063117 | 25 | 158 | 0.0 | 0.0 | 0.00 | 1.40 | 0.00 | 93 | 1009.1 |
| 20260904063035 | 25 | 157 | 0.0 | 0.0 | 0.00 | 1.40 | 0.00 | 93 | 1009.2 |
| 20260904063024 | 25 | 157 | 0.0 | 0.0 | 0.00 | 1.40 | 0.00 | 93 | 1009.1 |
| 20260904062718 | 25 | 157 | 0.0 | 0.0 | 0.00 | 1.40 | 0.00 | 93 | 1009.2 |
| 20260904062517 | 25 | 158 | 0.0 | 0.0 | 0.00 | 1.40 | 0.00 | 93 | 1009.2 |
| 20260904062317 | 25 | 157 | 0.0 | 0.0 | 0.00 | 1.40 | 0.00 | 93 | 1009.3 |
| 20260904062119 | 25 | 158 | 0.0 | 0.0 | 0.00 | 1.40 | 0.00 | 93 | 1009.3 |
| 20260904062034 | 25 | 157 | 0.0 | 0.0 | 0.00 | 1.40 | 0.00 | 93 | 1009.2 |
| 20260904062023 | 25 | 158 | 0.0 | 0.0 | 0.00 | 1.40 | 0.00 | 93 | 1009.2 |
| 20260904061727 | 25 | 158 | 0.0 | 0.0 | 0.00 | 1.40 | 0.00 | 92 | 1009.3 |
| 20260904061634 | 25 | 158 | 0.0 | 0.0 | 0.00 | 1.40 | 0.00 | 92 | 1009.3 |
| 20260904061533 | 25 | 158 | 0.0 | 0.0 | 0.00 | 1.40 | 0.00 | 92 | 1009.3 |
| 20260904061321 | 25 | 158 | 0.0 | 0.0 | 0.00 | 1.40 | 0.00 | 92 | 1009.3 |
| 20260904061118 | 25 | 158 | 0.0 | 0.0 | 0.00 | 1.40 | 0.00 | 92 | 1009.2 |
| 20260904061025 | 25 | 158 | 0.0 | 0.0 | 0.00 | 1.40 | 0.00 | 92 | 1009.3 |
| 20260904060921 | 25 | 158 | 0.0 | 0.0 | 0.00 | 1.40 | 0.00 | 92 | 1009.3 |
| 20260904060727 | 25 | 158 | 0.0 | 0.0 | 0.00 | 1.40 | 0.00 | 92 | 1009.2 |
| 20260904060532 | 25 | 155 | 0.0 | 0.0 | 0.00 | 1.40 | 0.00 | 92 | 1009.3 |
| 20260904060319 | 25 | 157 | 0.0 | 0.0 | 0.00 | 1.40 | 0.00 | 92 | 1009.3 |
| 20260904060119 | 25 | 157 | 0.0 | 0.0 | 0.00 | 1.40 | 0.00 | 92 | 1009.2 |
| 20260904060020 | 25 | 155 | 0.0 | 0.0 | 0.00 | 1.40 | 0.00 | 92 | 1009.2 |
| 20260904055917 | 25 | 158 | 0.0 | 0.0 | 0.00 | 1.40 | 0.00 | 92 | 1009.3 |
| 20260904055818 | 25 | 157 | 0.0 | 0.0 | 0.00 | 1.40 | 0.00 | 92 | 1009.2 |
| 20260904055633 | 25 | 157 | 0.0 | 0.0 | 0.00 | 1.40 | 0.00 | 92 | 1009.3 |
| 20260904055521 | 25 | 157 | 0.0 | 0.0 | 0.00 | 1.40 | 0.00 | 92 | 1009.3 |
| 20260904055319 | 25 | 158 | 0.0 | 0.0 | 0.00 | 1.40 | 0.00 | 92 | 1009.3 |
| 20260904055117 | 25 | 155 | 0.0 | 0.0 | 0.00 | 1.40 | 0.00 | 92 | 1009.2 |
| 20260904055016 | 25 | 158 | 0.0 | 0.0 | 0.00 | 1.40 | 0.00 | 92 | 1009.3 |
| 20260904054916 | 25 | 157 | 0.0 | 0.0 | 0.00 | 1.40 | 0.00 | 92 | 1009.3 |
| 20260904054716 | 25 | 157 | 0.0 | 0.0 | 0.00 | 1.40 | 0.00 | 92 | 1009.3 |
| 20260904054522 | 25 | 158 | 0.0 | 0.0 | 0.00 | 1.40 | 0.00 | 92 | 1009.3 |
| 20260904054419 | 25 | 157 | 0.0 | 0.0 | 0.00 | 1.40 | 0.00 | 92 | 1009.2 |
| 20260904054223 | 25 | 158 | 0.0 | 0.0 | 0.00 | 1.40 | 0.00 | 92 | 1009.2 |
| 20260904054019 | 25 | 159 | 0.0 | 0.0 | 0.00 | 1.40 | 0.00 | 92 | 1009.3 |
| 20260904053918 | 25 | 157 | 0.0 | 0.0 | 0.00 | 1.40 | 0.00 | 92 | 1009.2 |
| 20260904053719 | 25 | 157 | 0.0 | 0.0 | 0.00 | 1.40 | 0.00 | 92 | 1009.2 |
| 20260904053520 | 25 | 157 | 0.0 | 0.0 | 0.00 | 1.40 | 0.00 | 92 | 1009.2 |
| 20260904053320 | 25 | 157 | 0.0 | 0.0 | 0.00 | 1.40 | 0.00 | 92 | 1009.2 |
| 20260904053120 | 25 | 158 | 0.0 | 0.0 | 0.00 | 1.40 | 0.00 | 92 | 1009.3 |
| 20260904053028 | 25 | 157 | 0.0 | 0.0 | 0.00 | 1.40 | 0.00 | 92 | 1009.2 |
| 20260904053018 | 25 | 157 | 0.0 | 0.0 | 0.00 | 1.40 | 0.00 | 92 | 1009.3 |
| 20260904052718 | 25 | 158 | 0.0 | 0.0 | 0.00 | 1.40 | 0.00 | 92 | 1009.2 |
| 20260904052626 | 25 | 157 | 0.0 | 0.0 | 0.00 | 1.40 | 0.00 | 91 | 1009.2 |
| 20260904052523 | 25 | 157 | 0.0 | 0.0 | 0.00 | 1.40 | 0.00 | 91 | 1009.2 |
| 20260904052318 | 25 | 155 | 0.0 | 0.0 | 0.00 | 1.40 | 0.00 | 91 | 1009.2 |
| 20260904052126 | 25 | 157 | 0.0 | 0.0 | 0.00 | 1.40 | 0.00 | 91 | 1009.2 |
| 20260904052033 | 25 | 158 | 0.0 | 0.0 | 0.00 | 1.40 | 0.00 | 91 | 1009.2 |
| 20260904052021 | 25 | 157 | 0.0 | 0.0 | 0.00 | 1.40 | 0.00 | 91 | 1009.1 |
| 20260904051718 | 25 | 158 | 0.0 | 0.0 | 0.00 | 1.40 | 0.00 | 91 | 1009.2 |
| 20260904051518 | 25 | 157 | 0.0 | 0.0 | 0.00 | 1.40 | 0.00 | 91 | 1009.2 |
| 20260904051320 | 25 | 158 | 0.0 | 0.0 | 0.00 | 1.40 | 0.00 | 91 | 1009.2 |
| 20260904051217 | 25 | 157 | 0.0 | 0.0 | 0.00 | 1.40 | 0.00 | 91 | 1009.2 |
| 20260904051031 | 25 | 157 | 0.0 | 0.0 | 0.00 | 1.40 | 0.00 | 91 | 1009.2 |
| 20260904050917 | 25 | 157 | 0.0 | 0.0 | 0.00 | 1.40 | 0.00 | 91 | 1009.2 |
| 20260904050719 | 25 | 159 | 0.0 | 0.0 | 0.00 | 1.40 | 0.00 | 91 | 1009.1 |
| 20260904050626 | 25 | 157 | 0.0 | 0.0 | 0.00 | 1.40 | 0.00 | 91 | 1009.2 |
| 20260904050521 | 25 | 157 | 0.0 | 0.0 | 0.00 | 1.40 | 0.00 | 91 | 1009.2 |
| 20260904050316 | 25 | 157 | 0.0 | 0.0 | 0.00 | 1.40 | 0.00 | 91 | 1009.2 |
| 20260904050120 | 25 | 158 | 0.0 | 0.0 | 0.00 | 1.40 | 0.00 | 91 | 1009.1 |
| 20260904050018 | 25 | 158 | 0.0 | 0.0 | 0.00 | 1.40 | 0.00 | 91 | 1009.1 |
| 20260904045918 | 25 | 155 | 0.0 | 0.0 | 0.00 | 1.40 | 1.40 | 91 | 1009.2 |
| 20260904045819 | 25 | 157 | 0.0 | 0.0 | 0.00 | 1.40 | 1.40 | 91 | 1009.2 |
| 20260904045505 | 25 | 157 | 0.0 | 0.0 | 0.00 | 1.40 | 1.40 | 91 | 1009.1 |
| 20260904045316 | 25 | 157 | 0.0 | 0.0 | 0.00 | 1.40 | 1.40 | 91 | 1009.2 |
| 20260904045219 | 25 | 157 | 0.0 | 0.0 | 0.00 | 1.40 | 1.40 | 91 | 1009.1 |
| 20260904045006 | 25 | 155 | 0.0 | 0.0 | 0.00 | 1.40 | 1.40 | 91 | 1009.1 |
| 20260904044915 | 25 | 157 | 0.0 | 0.0 | 0.00 | 1.40 | 1.40 | 91 | 1009.1 |
| 20260904044804 | 25 | 157 | 0.0 | 0.0 | 0.00 | 1.40 | 1.40 | 91 | 1009.2 |
| 20260904044754 | 25 | 157 | 0.0 | 0.0 | 0.00 | 1.40 | 1.40 | 91 | 1009.2 |
| 20260904044319 | 25 | 155 | 0.0 | 0.0 | 0.00 | 1.40 | 1.40 | 90 | 1009.1 |
| 20260904044306 | 25 | 155 | 0.0 | 0.0 | 0.00 | 1.40 | 1.40 | 90 | 1009.2 |
| 20260904044302 | 25 | 157 | 0.0 | 0.0 | 0.00 | 1.40 | 1.40 | 90 | 1009.2 |
| 20260904044243 | 25 | 157 | 0.0 | 0.0 | 0.00 | 1.40 | 1.40 | 90 | 1009.1 |
| 20260904043820 | 25 | 158 | 0.0 | 0.0 | 0.00 | 1.40 | 1.40 | 90 | 1009.1 |
| 20260904043504 | 25 | 158 | 0.0 | 0.0 | 0.00 | 1.40 | 1.40 | 90 | 1009.2 |
| 20260904043423 | 25 | 157 | 0.0 | 0.0 | 0.00 | 1.40 | 1.40 | 90 | 1009.1 |
| 20260904043309 | 25 | 157 | 0.0 | 0.0 | 0.00 | 1.40 | 1.40 | 90 | 1009.2 |
| 20260904043252 | 25 | 157 | 0.0 | 0.0 | 0.00 | 1.40 | 1.40 | 90 | 1009.1 |
| 20260904042917 | 25 | 157 | 0.0 | 0.0 | 0.00 | 1.40 | 1.40 | 90 | 1009.2 |
| 20260904042721 | 25 | 158 | 0.0 | 0.0 | 0.00 | 1.40 | 1.40 | 90 | 1009.1 |
| 20260904042524 | 25 | 157 | 0.0 | 0.0 | 0.00 | 1.40 | 1.40 | 90 | 1009.1 |
| 20260904042504 | 25 | 155 | 0.0 | 0.0 | 0.00 | 1.40 | 1.40 | 90 | 1009.1 |
| 20260904042421 | 25 | 155 | 0.0 | 0.0 | 0.00 | 1.40 | 1.40 | 89 | 1009.2 |
| 20260904042251 | 25 | 157 | 0.0 | 0.0 | 0.00 | 1.40 | 1.40 | 89 | 1009.1 |
| 20260904042247 | 25 | 157 | 0.0 | 0.0 | 0.00 | 1.40 | 1.40 | 89 | 1009.0 |
| 20260904042236 | 25 | 157 | 0.0 | 0.0 | 0.00 | 1.40 | 1.40 | 89 | 1009.0 |
| 20260904041705 | 25 | 155 | 0.0 | 0.0 | 0.00 | 1.40 | 1.40 | 89 | 1009.1 |
| 20260904041510 | -17 | 0.0 | 0.0 | 0.00 | 0.00 | 0.00 | 1009.1 | ||
| 20260904041232 | -17 | 0.0 | 0.0 | 0.00 | 1.40 | 1.40 | |||
| 20260904041008 | -17 | 0.0 | 0.0 | 0.00 | 1.40 | 1.40 | |||
| 20260904040834 | -17 | 0.0 | 0.0 | 0.00 | 1.40 | 1.40 | |||
| 20260904040702 | -17 | 0.0 | 0.0 | 0.00 | 1.40 | 1.40 | |||
| 20260904040505 | -17 | 0.0 | 0.0 | 0.00 | 1.40 | 1.40 | |||
| 20260904040405 | -17 | 0.0 | 0.0 | 0.00 | 1.40 | 1.40 | |||
| 20260904040204 | -17 | 0.0 | 0.0 | 0.00 | 1.40 | 1.40 | |||
| 20260904040008 | -17 | 0.0 | 0.0 | 0.00 | 1.40 | 1.40 | 1009.1 | ||
| 20260904035932 | -17 | 0.0 | 0.0 | 0.00 | 1.40 | 1.40 | 1009.1 | ||
| 20260904035831 | -17 | 0.0 | 0.0 | 0.00 | 1.40 | 1.40 | 1009.1 | ||
| 20260904035507 | 26 | 155 | 0.0 | 0.0 | 0.00 | 1.40 | 1.40 | 88 | 1009.1 |
| 20260904035331 | 26 | 155 | 0.0 | 0.0 | 0.00 | 1.40 | 1.40 | 88 | 1009.1 |
| 20260904035201 | 26 | 155 | 0.0 | 0.0 | 0.00 | 1.40 | 1.40 | 88 | 1009.1 |
| 20260904035004 | 26 | 155 | 0.0 | 0.0 | 0.00 | 1.40 | 1.40 | 88 | 1009.1 |
| 20260904034902 | 26 | 155 | 0.0 | 0.0 | 0.00 | 1.40 | 1.40 | 88 | 1009.1 |
| 20260904034702 | 26 | 155 | 0.0 | 0.0 | 0.00 | 1.40 | 1.40 | 88 | 1009.1 |
| 20260904034504 | 26 | 157 | 0.0 | 0.0 | 0.00 | 1.40 | 1.40 | 88 | 1009.1 |
| 20260904034354 | 26 | 155 | 0.0 | 0.0 | 0.00 | 1.40 | 1.40 | 88 | 1009.1 |
| 20260904034102 | -17 | 155 | 0.0 | 0.0 | 0.00 | 1.40 | 1.40 | 1009.1 | |
| 20260904034000 | -17 | 155 | 0.0 | 0.0 | 0.00 | 1.40 | 1.40 | 1009.1 | |
| 20260904033904 | -17 | 155 | 0.0 | 0.0 | 0.00 | 1.40 | 1.40 | 1009.1 | |
| 20260904033803 | -17 | 155 | 0.0 | 0.0 | 0.00 | 1.40 | 1.40 | 1009.1 | |
| 20260904033503 | -17 | 0.0 | 0.0 | 0.00 | 0.00 | 0.00 | 1009.1 | ||
| 20260904033211 | -17 | 0.0 | 0.0 | 0.00 | 1.40 | 1.40 | |||
| 20260904033003 | -17 | 0.0 | 0.0 | 0.00 | 1.40 | 1.40 | |||
| 20260904032936 | -17 | 0.0 | 0.0 | 0.00 | 1.40 | 1.40 | |||
| 20260904032923 | -17 | 0.0 | 0.0 | 0.00 | 1.40 | 1.40 | |||
| 20260904032752 | -17 | 0.0 | 0.0 | 0.00 | 1.40 | 1.40 | |||
| 20260904032748 | -17 | 0.0 | 0.0 | 0.00 | 1.40 | 1.40 | |||
| 20260904032335 | -17 | 0.0 | 0.0 | 0.00 | 1.40 | 1.40 | |||
| 20260904032110 | -17 | 0.0 | 0.0 | 0.00 | 1.40 | 1.40 | 1009.2 | ||
| 20260904031907 | -17 | 0.0 | 0.0 | 0.00 | 1.40 | 1.40 | 1009.2 | ||
| 20260904031709 | -17 | 0.0 | 0.0 | 0.00 | 1.40 | 1.40 | 1009.2 | ||
| 20260904031639 | 26 | 148 | 0.0 | 0.0 | 0.00 | 1.40 | 1.40 | 88 | 1009.2 |
| 20260904031437 | 26 | 148 | 0.0 | 0.0 | 0.00 | 1.40 | 1.40 | 88 | 1009.2 |
| 20260904031212 | 26 | 148 | 0.0 | 0.0 | 0.00 | 1.40 | 1.40 | 88 | 1009.2 |
| 20260904031011 | 26 | 148 | 0.0 | 0.0 | 0.00 | 1.40 | 1.40 | 88 | 1009.1 |
| 20260904030911 | 26 | 148 | 0.0 | 0.0 | 0.00 | 1.40 | 1.40 | 88 | 1009.2 |
| 20260904030811 | 26 | 148 | 0.0 | 0.0 | 0.00 | 1.40 | 1.40 | 88 | 1009.2 |
| 20260904030615 | 26 | 148 | 0.0 | 0.0 | 0.00 | 1.40 | 1.40 | 88 | 1009.2 |
| 20260904030412 | 26 | 141 | 0.0 | 0.0 | 0.00 | 1.40 | 1.40 | 88 | 1009.2 |
| 20260904030220 | 26 | 123 | 0.0 | 0.0 | 0.00 | 1.40 | 1.40 | 88 | 1009.2 |
| 20260904030213 | 26 | 123 | 0.0 | 0.0 | 0.00 | 1.40 | 1.40 | 88 | 1009.2 |
| 20260904025911 | 26 | 123 | 0.0 | 0.0 | 0.00 | 1.40 | 1.40 | 88 | 1009.2 |
| 20260904025812 | 26 | 123 | 0.0 | 0.0 | 0.00 | 1.40 | 1.40 | 88 | 1009.1 |
| 20260904025611 | 26 | 123 | 0.0 | 0.0 | 0.00 | 1.40 | 1.40 | 88 | 1009.2 |
| 20260904025413 | 26 | 120 | 0.0 | 0.0 | 0.00 | 1.40 | 1.40 | 88 | 1009.1 |
| 20260904025211 | 26 | 120 | 0.0 | 0.0 | 0.00 | 1.40 | 1.40 | 88 | 1009.1 |
| 20260904025027 | 26 | 120 | 0.0 | 0.0 | 0.00 | 1.40 | 1.40 | 88 | 1009.2 |
| 20260904024909 | 26 | 120 | 0.0 | 0.0 | 0.00 | 1.40 | 1.40 | 88 | 1009.1 |
| 20260904024811 | 26 | 120 | 0.0 | 0.0 | 0.00 | 1.40 | 1.40 | 88 | 1009.2 |
| 20260904024712 | 26 | 121 | 0.0 | 0.0 | 0.00 | 1.40 | 1.40 | 88 | 1009.1 |
| 20260904024412 | 26 | 114 | 0.0 | 0.0 | 0.00 | 1.40 | 1.40 | 87 | 1009.1 |
| 20260904024211 | 26 | 111 | 0.0 | 0.0 | 0.00 | 1.40 | 1.40 | 87 | 1009.1 |
| 20260904024111 | 26 | 111 | 0.0 | 0.0 | 0.00 | 1.40 | 1.40 | 87 | 1009.1 |
| 20260904023904 | 26 | 111 | 0.0 | 0.0 | 0.00 | 1.40 | 1.40 | 87 | 1009.0 |
| 20260904023811 | 26 | 113 | 0.0 | 0.0 | 0.00 | 1.40 | 1.40 | 87 | 1009.0 |
| 20260904023702 | 26 | 111 | 0.0 | 0.0 | 0.00 | 1.40 | 1.40 | 87 | 1009.0 |
| 20260904023405 | 26 | 110 | 0.0 | 0.0 | 0.00 | 1.40 | 1.40 | 87 | 1009.0 |
| 20260904023204 | 26 | 110 | 0.0 | 0.0 | 0.00 | 1.40 | 1.40 | 87 | 1009.0 |
| 20260904023004 | 26 | 109 | 0.0 | 0.0 | 0.00 | 1.40 | 1.40 | 87 | 1009.0 |
| 20260904022902 | 26 | 109 | 0.0 | 0.0 | 0.00 | 1.40 | 1.40 | 87 | 1009.0 |
| 20260904022803 | -17 | 107 | 0.0 | 0.0 | 0.00 | 1.40 | 1.40 | 1009.0 | |
| 20260904022709 | -17 | 0.0 | 0.0 | 0.00 | 0.00 | 0.00 | 1009.1 | ||
| 20260904022420 | -17 | 0.0 | 0.0 | 0.00 | 0.00 | 0.00 | 1009.0 | ||
| 20260904022132 | -17 | 0.0 | 0.0 | 0.00 | 1.40 | 1.40 | |||
| 20260904022107 | -17 | 0.0 | 0.0 | 0.00 | 1.40 | 1.40 | |||
| 20260904021814 | -17 | 0.0 | 0.0 | 0.00 | 1.40 | 1.40 | |||
| 20260904021606 | -17 | 0.0 | 0.0 | 0.00 | 1.40 | 1.40 | |||
| 20260904021335 | -17 | 0.0 | 0.0 | 0.00 | 1.40 | 1.40 | |||
| 20260904021136 | -17 | 0.0 | 0.0 | 0.00 | 1.40 | 1.40 | |||
| 20260904021104 | -17 | 0.0 | 0.0 | 0.00 | 1.40 | 1.40 | |||
| 20260904021034 | -17 | 0.0 | 0.0 | 0.00 | 1.40 | 1.40 | 1008.8 | ||
| 20260904020738 | -17 | 0.0 | 0.0 | 0.00 | 1.40 | 1.40 | 1008.8 | ||
| 20260904020617 | 26 | 134 | 0.0 | 0.0 | 0.00 | 1.40 | 1.40 | 85 | 1008.8 |
| 20260904020609 | -17 | 0.0 | 0.0 | 0.00 | 1.40 | 1.40 | 1008.8 | ||
| 20260904020306 | 26 | 134 | 0.0 | 0.0 | 0.00 | 1.40 | 1.40 | 85 | 1008.8 |
| 20260904020216 | 26 | 134 | 0.0 | 0.0 | 0.00 | 1.40 | 1.40 | 85 | 1008.8 |
| 20260904020114 | 26 | 134 | 0.0 | 0.0 | 0.00 | 1.40 | 1.40 | 85 | 1008.8 |
| 20260904015902 | 26 | 134 | 0.0 | 0.0 | 0.00 | 1.40 | 1.40 | 85 | 1008.8 |
| 20260904015703 | 26 | 134 | 0.0 | 0.0 | 0.00 | 1.40 | 1.40 | 85 | 1008.8 |
| 20260904015601 | 26 | 134 | 0.0 | 0.0 | 0.00 | 1.40 | 1.40 | 85 | 1008.8 |
| 20260904015503 | 26 | 131 | 0.0 | 0.0 | 0.00 | 1.40 | 1.40 | 85 | 1008.8 |
| 20260904015448 | 26 | 131 | 0.0 | 0.0 | 0.00 | 1.40 | 1.40 | 85 | 1008.9 |
| 20260904015358 | 26 | 42 | 0.0 | 0.0 | 0.00 | 1.40 | 1.40 | 84 | 1008.8 |
| 20260904015316 | 26 | 42 | 0.0 | 0.0 | 0.00 | 1.40 | 1.40 | 84 | 1008.8 |
| 20260904014904 | 26 | 44 | 0.0 | 0.0 | 0.00 | 1.40 | 1.40 | 84 | 1008.9 |
| 20260904014804 | 26 | 44 | 0.0 | 0.0 | 0.00 | 1.40 | 1.40 | 84 | 1008.9 |
| 20260904014607 | 26 | 44 | 0.0 | 0.0 | 0.00 | 1.40 | 1.40 | 84 | 1008.9 |
| 20260904014501 | 26 | 45 | 0.0 | 0.0 | 0.00 | 1.40 | 1.40 | 84 | 1008.8 |
| 20260904014359 | 26 | 44 | 0.0 | 0.0 | 0.00 | 1.40 | 1.40 | 84 | 1008.9 |
| 20260904014349 | 26 | 44 | 0.0 | 0.0 | 0.00 | 1.40 | 1.40 | 84 | 1008.9 |
| 20260904014313 | 26 | 44 | 0.0 | 0.0 | 0.00 | 1.40 | 1.40 | 84 | 1008.9 |
| 20260904014000 | 26 | 42 | 0.0 | 0.0 | 0.00 | 0.00 | 0.00 | 84 | 1008.9 |
| 20260904013658 | -17 | 44 | 0.0 | 0.0 | 0.00 | 0.00 | 0.00 | 1008.8 | |
| 20260904013559 | -17 | 44 | 0.0 | 0.0 | 0.00 | 0.00 | 0.00 | 1008.9 | |
| 20260904013500 | -17 | 44 | 0.0 | 0.0 | 0.00 | 0.00 | 0.00 | 1008.9 | |
| 20260904013441 | -17 | 44 | 0.0 | 0.0 | 0.00 | 0.00 | 0.00 | 1008.8 | |
| 20260904013323 | -17 | 0.0 | 0.0 | 0.00 | 0.00 | 0.00 | 1008.8 | ||
| 20260904012704 | -17 | 0.0 | 0.0 | 0.00 | 1.40 | 1.40 | |||
| 20260904012505 | -17 | 0.0 | 0.0 | 0.00 | 1.40 | 1.40 | |||
| 20260904012454 | -17 | 0.0 | 0.0 | 0.00 | 1.40 | 1.40 | |||
| 20260904012433 | -17 | 0.0 | 0.0 | 0.00 | 1.40 | 1.40 | |||
| 20260904012033 | -17 | 0.0 | 0.0 | 0.00 | 1.40 | 1.40 | |||
| 20260904011832 | -17 | 0.0 | 0.0 | 0.00 | 1.40 | 1.40 | |||
| 20260904011706 | -17 | 0.0 | 0.0 | 0.00 | 1.40 | 1.40 | 1008.6 | ||
| 20260904011632 | -17 | 0.0 | 0.0 | 0.00 | 1.40 | 1.40 | 1008.6 | ||
| 20260904011431 | -17 | 0.0 | 0.0 | 0.00 | 1.40 | 1.40 | 1008.6 | ||
| 20260904011303 | 27 | 42 | 0.0 | 0.0 | 0.00 | 1.40 | 1.40 | 81 | 1008.6 |
| 20260904011134 | 27 | 42 | 0.0 | 0.0 | 0.00 | 1.40 | 1.40 | 81 | 1008.6 |
| 20260904011007 | 27 | 42 | 0.0 | 0.0 | 0.00 | 1.40 | 1.40 | 81 | 1008.6 |
| 20260904010904 | 27 | 42 | 0.0 | 0.0 | 0.00 | 1.40 | 1.40 | 81 | 1008.5 |
| 20260904010631 | 27 | 42 | 0.0 | 0.0 | 0.00 | 1.40 | 1.40 | 81 | 1008.6 |
| 20260904010535 | 27 | 42 | 0.0 | 0.0 | 0.00 | 1.40 | 1.40 | 81 | 1008.5 |
| 20260904010411 | 27 | 42 | 0.0 | 0.0 | 0.00 | 1.40 | 1.40 | 81 | 1008.5 |
| 20260904010108 | 27 | 42 | 0.0 | 0.0 | 0.00 | 1.40 | 1.40 | 81 | 1008.5 |
| 20260904005928 | 27 | 35 | 0.0 | 0.0 | 0.00 | 1.40 | 1.40 | 81 | 1008.5 |
| 20260904005826 | 27 | 35 | 0.0 | 0.0 | 0.00 | 1.40 | 1.40 | 81 | 1008.5 |
| 20260904005607 | 27 | 37 | 0.0 | 0.0 | 0.00 | 1.40 | 1.40 | 81 | 1008.4 |
| 20260904005524 | 27 | 35 | 0.0 | 0.0 | 0.00 | 1.40 | 1.40 | 81 | 1008.5 |
| 20260904005424 | 28 | 32 | 0.0 | 0.0 | 0.00 | 1.40 | 1.40 | 80 | 1008.4 |
| 20260904005107 | 28 | 31 | 0.0 | 0.0 | 0.00 | 1.40 | 1.40 | 80 | 1008.5 |
| 20260904004922 | 28 | 32 | 0.0 | 0.0 | 0.00 | 1.40 | 1.40 | 80 | 1008.5 |
| 20260904004713 | 28 | 32 | 0.0 | 0.0 | 0.00 | 1.40 | 1.40 | 80 | 1008.4 |
| 20260904004606 | 28 | 31 | 0.0 | 0.0 | 0.00 | 1.40 | 1.40 | 80 | 1008.5 |
| 20260904004511 | 28 | 31 | 0.0 | 0.0 | 0.00 | 1.40 | 1.40 | 79 | 1008.5 |
| 20260904004433 | 28 | 31 | 0.0 | 0.0 | 0.00 | 1.40 | 1.40 | 79 | 1008.5 |
| 20260904004107 | 28 | 31 | 0.0 | 0.0 | 0.00 | 1.40 | 1.40 | 79 | 1008.4 |
| 20260904003924 | 28 | 31 | 0.0 | 0.0 | 0.00 | 1.40 | 1.40 | 78 | 1008.5 |
| 20260904003914 | 28 | 30 | 0.0 | 0.0 | 0.00 | 1.40 | 1.40 | 79 | 1008.5 |
| 20260904003839 | 28 | 30 | 0.0 | 0.0 | 0.00 | 1.40 | 1.40 | 78 | 1008.5 |
| 20260904003511 | 28 | 31 | 0.0 | 1.6 | 0.00 | 1.40 | 1.40 | 78 | 1008.5 |
| 20260904003312 | 28 | 0 | 0.0 | 1.6 | 0.00 | 1.40 | 1.40 | 78 | 1008.5 |
| 20260904003215 | 28 | 42 | 0.0 | 1.6 | 0.00 | 1.40 | 1.40 | 78 | 1008.5 |
| 20260904003111 | 28 | 42 | 0.0 | 1.6 | 0.00 | 1.40 | 1.40 | 78 | 1008.5 |
| 20260904002912 | 28 | 42 | 0.0 | 1.6 | 0.00 | 1.40 | 1.40 | 78 | 1008.4 |
| 20260904002806 | 28 | 48 | 0.0 | 1.6 | 0.00 | 1.40 | 1.40 | 77 | 1008.4 |
| 20260904002611 | 28 | 48 | 0.0 | 1.6 | 0.00 | 1.40 | 1.40 | 77 | 1008.4 |
| 20260904002509 | 28 | 47 | 0.0 | 0.0 | 0.00 | 1.40 | 1.40 | 77 | 1008.5 |
| 20260904002307 | 28 | 49 | 0.0 | 0.0 | 0.00 | 1.40 | 1.40 | 77 | 1008.4 |
| 20260904002115 | 29 | 48 | 0.0 | 0.0 | 0.00 | 1.40 | 1.40 | 77 | 1008.4 |
| 20260904002107 | 29 | 48 | 0.0 | 0.0 | 0.00 | 1.40 | 1.40 | 77 | 1008.5 |
| 20260904001906 | 29 | 48 | 0.0 | 0.0 | 0.00 | 1.40 | 1.40 | 76 | 1008.5 |
| 20260904001804 | 29 | 48 | 0.0 | 0.0 | 0.00 | 1.40 | 1.40 | 76 | 1008.4 |
| 20260904001607 | 29 | 48 | 0.0 | 0.0 | 0.00 | 1.40 | 1.40 | 76 | 1008.5 |
| 20260904001506 | 29 | 47 | 0.0 | 0.0 | 0.00 | 1.40 | 1.40 | 76 | 1008.5 |
| 20260904001404 | 29 | 51 | 0.0 | 0.0 | 0.00 | 1.40 | 1.40 | 76 | 1008.5 |
| 20260904001113 | 29 | 54 | 0.0 | 0.0 | 0.00 | 1.40 | 1.40 | 75 | 1008.4 |
| 20260904001104 | 29 | 56 | 0.0 | 0.0 | 0.00 | 1.40 | 1.40 | 75 | 1008.4 |
| 20260904000906 | 30 | 55 | 0.0 | 0.0 | 0.00 | 1.40 | 1.40 | 75 | 1008.5 |
| 20260904000708 | 30 | 54 | 0.0 | 0.0 | 0.00 | 1.40 | 1.40 | 74 | 1008.3 |
| 20260904000606 | 30 | 55 | 0.0 | 0.0 | 0.00 | 1.40 | 1.40 | 74 | 1008.4 |
| 20260904000432 | 30 | 109 | 0.0 | 0.0 | 0.00 | 1.40 | 1.40 | 74 | 1008.4 |
| 20260904000330 | 30 | 175 | 0.0 | 1.6 | 0.00 | 1.40 | 1.40 | 74 | 1008.4 |
| 20260904000111 | 30 | 176 | 0.0 | 4.8 | 0.00 | 1.40 | 1.40 | 74 | 1008.5 |
| 20260904000045 | 30 | 178 | 0.0 | 4.8 | 0.00 | 1.40 | 1.40 | 74 | 1008.5 |
| 20260903235832 | 30 | 182 | 0.0 | 4.8 | 0.00 | 1.40 | 1.40 | 73 | 1008.5 |
| 20260903235619 | 30 | 176 | 0.0 | 4.8 | 0.00 | 1.40 | 1.40 | 73 | 1008.5 |
| 20260903235606 | 30 | 178 | 0.0 | 4.8 | 0.00 | 1.40 | 1.40 | 73 | 1008.5 |
| 20260903235513 | 30 | 178 | 0.0 | 4.8 | 0.00 | 1.40 | 1.40 | 73 | 1008.5 |
| 20260903235214 | 30 | 176 | 0.0 | 4.8 | 0.00 | 1.40 | 1.40 | 72 | 1008.5 |
| 20260903235115 | 30 | 173 | 0.0 | 4.8 | 0.00 | 1.40 | 1.40 | 72 | 1008.5 |
| 20260903235104 | 30 | 178 | 0.0 | 4.8 | 0.00 | 1.40 | 1.40 | 72 | 1008.5 |
| 20260903234911 | 30 | 168 | 0.0 | 4.8 | 0.00 | 1.40 | 1.40 | 72 | 1008.6 |
| 20260903234857 | 30 | 165 | 0.0 | 4.8 | 0.00 | 1.40 | 1.40 | 72 | 1008.5 |
| 20260903234824 | 30 | 169 | 0.0 | 4.8 | 0.00 | 1.40 | 1.40 | 72 | 1008.5 |
| 20260903234412 | 30 | 166 | 0.0 | 6.4 | 0.00 | 1.40 | 1.40 | 72 | 1008.6 |
| 20260903234213 | 30 | 166 | 0.0 | 6.4 | 0.00 | 1.40 | 1.40 | 72 | 1008.5 |
| 20260903234117 | 30 | 165 | 0.0 | 6.4 | 0.00 | 1.40 | 1.40 | 72 | 1008.6 |
| 20260903234104 | 30 | 168 | 0.0 | 6.4 | 0.00 | 1.40 | 1.40 | 72 | 1008.6 |
| 20260903233920 | 30 | 166 | 0.0 | 8.0 | 0.00 | 1.40 | 1.40 | 71 | 1008.6 |
| 20260903233911 | 30 | 165 | 0.0 | 8.0 | 0.00 | 1.40 | 1.40 | 71 | 1008.6 |
| 20260903233855 | 30 | 166 | 0.0 | 6.4 | 0.00 | 1.40 | 1.40 | 71 | 1008.6 |
| 20260903233410 | 30 | 202 | 0.0 | 8.0 | 0.00 | 1.40 | 1.40 | 71 | 1008.7 |
| 20260903233210 | 30 | 165 | 0.0 | 8.0 | 0.00 | 1.40 | 1.40 | 71 | 1008.6 |
| 20260903233105 | 30 | 169 | 0.0 | 8.0 | 0.00 | 1.40 | 1.40 | 71 | 1008.6 |
| 20260903233009 | 30 | 166 | 0.0 | 8.0 | 0.00 | 1.40 | 1.40 | 70 | 1008.6 |
| 20260903232911 | 30 | 169 | 0.0 | 14.5 | 0.00 | 1.40 | 1.40 | 71 | 1008.5 |
| 20260903232856 | 30 | 164 | 0.0 | 14.5 | 0.00 | 1.40 | 1.40 | 71 | 1008.6 |
| 20260903232409 | 30 | 171 | 0.0 | 14.5 | 0.00 | 1.40 | 1.40 | 71 | 1008.5 |
| 20260903232306 | 30 | 171 | 0.0 | 14.5 | 0.00 | 1.40 | 1.40 | 71 | 1008.3 |
| 20260903232102 | 30 | 169 | 0.0 | 14.5 | 0.00 | 1.40 | 1.40 | 70 | 1008.5 |
| 20260903232007 | 30 | 168 | 0.0 | 14.5 | 0.00 | 1.40 | 1.40 | 70 | 1008.3 |
| 20260903231807 | 30 | 188 | 0.0 | 6.4 | 0.00 | 1.40 | 1.40 | 70 | 1008.3 |
| 20260903231713 | 30 | 188 | 0.0 | 6.4 | 0.00 | 1.40 | 1.40 | 70 | 1008.3 |
| 20260903231601 | 30 | 188 | 0.0 | 6.4 | 0.00 | 1.40 | 1.40 | 70 | 1008.3 |
| 20260903231407 | 30 | 188 | 0.0 | 9.7 | 0.00 | 1.40 | 1.40 | 70 | 1008.2 |
| 20260903231205 | 30 | 188 | 0.0 | 9.7 | 0.00 | 1.40 | 1.40 | 70 | 1008.2 |
| 20260903231107 | 30 | 165 | 0.0 | 9.7 | 0.00 | 1.40 | 1.40 | 70 | 1008.2 |
| 20260903231004 | 30 | 168 | 0.0 | 9.7 | 0.00 | 1.40 | 1.40 | 71 | 1008.2 |
| 20260903230922 | 30 | 158 | 0.0 | 9.7 | 0.00 | 1.40 | 1.40 | 70 | 1008.1 |
| 20260903230905 | 30 | 158 | 0.0 | 9.7 | 0.00 | 1.40 | 1.40 | 70 | 1008.1 |
| 20260903230849 | 30 | 159 | 0.0 | 9.7 | 0.00 | 1.40 | 1.40 | 70 | 1008.0 |
| 20260903230404 | 30 | 52 | 0.0 | 8.0 | 0.00 | 1.40 | 1.40 | 71 | 1008.1 |
| 20260903230300 | 30 | 161 | 0.0 | 8.0 | 0.00 | 1.40 | 1.40 | 70 | 1008.1 |
| 20260903230057 | 30 | 37 | 0.0 | 8.0 | 0.00 | 1.40 | 1.40 | 70 | 1008.1 |
| 20260903230002 | 30 | 165 | 0.0 | 8.0 | 0.00 | 1.40 | 1.40 | 71 | 1008.1 |
| 20260903225859 | 30 | 169 | 0.0 | 16.1 | 0.00 | 1.40 | 1.40 | 71 | 1007.6 |
| 20260903225845 | 30 | 154 | 0.0 | 16.1 | 0.00 | 1.40 | 1.40 | 70 | 1007.9 |
| 20260903225546 | 30 | 171 | 0.0 | 16.1 | 0.00 | 1.40 | 1.40 | 71 | 1007.6 |
| 20260903225347 | 30 | 169 | 0.0 | 16.1 | 0.00 | 1.40 | 1.40 | 70 | 1007.6 |
| 20260903225244 | 30 | 94 | 0.0 | 16.1 | 0.00 | 1.40 | 1.40 | 70 | 1007.8 |
| 20260903225055 | 30 | 166 | 0.0 | 16.1 | 0.00 | 1.40 | 1.40 | 70 | 1007.9 |
| 20260903224943 | 30 | 183 | 0.0 | 16.1 | 0.00 | 1.40 | 1.40 | 69 | 1007.9 |
| 20260903224933 | 30 | 173 | 0.0 | 16.1 | 0.00 | 1.40 | 1.40 | 70 | 1007.9 |
| 20260903224843 | 30 | 183 | 0.0 | 16.1 | 0.00 | 1.40 | 1.40 | 70 | 1007.9 |
| 20260903224541 | 30 | 183 | 0.0 | 16.1 | 0.00 | 1.40 | 1.40 | 70 | 1007.9 |
| 20260903224342 | 30 | 220 | 0.0 | 16.1 | 0.00 | 1.40 | 1.40 | 69 | 1007.8 |
| 20260903224144 | 30 | 173 | 0.0 | 14.5 | 0.00 | 1.40 | 1.40 | 70 | 1007.8 |
| 20260903224052 | 30 | 165 | 0.0 | 14.5 | 0.00 | 1.40 | 1.40 | 70 | 1007.8 |
| 20260903223947 | 30 | 175 | 0.0 | 14.5 | 0.00 | 1.40 | 1.40 | 69 | 1007.5 |
| 20260903223940 | 30 | 188 | 0.0 | 14.5 | 0.00 | 1.40 | 1.40 | 70 | 1007.6 |
| 20260903223847 | 30 | 173 | 0.0 | 14.5 | 0.00 | 1.40 | 1.40 | 70 | 1007.5 |
| 20260903223831 | 30 | 13 | 0.0 | 14.5 | 0.00 | 1.40 | 1.40 | 70 | 1007.5 |
| 20260903223338 | 30 | 171 | 0.0 | 14.5 | 0.00 | 1.40 | 1.40 | 70 | 1007.6 |
| 20260903223238 | 30 | 20 | 0.0 | 11.3 | 0.00 | 1.40 | 1.40 | 70 | 1007.8 |
| 20260903223052 | 30 | 35 | 0.0 | 11.3 | 0.00 | 1.40 | 1.40 | 70 | 1007.8 |
| 20260903222935 | 30 | 168 | 0.0 | 11.3 | 0.00 | 1.40 | 1.40 | 69 | 1007.9 |
| 20260903222732 | 30 | 172 | 0.0 | 11.3 | 0.00 | 1.40 | 1.40 | 69 | 1007.8 |
| 20260903222551 | 30 | 120 | 0.0 | 11.3 | 0.00 | 1.40 | 1.40 | 69 | 1007.8 |
| 20260903222532 | 30 | 165 | 0.0 | 11.3 | 0.00 | 1.40 | 1.40 | 69 | 1007.8 |
| 20260903222333 | 30 | 189 | 0.0 | 17.7 | 0.00 | 1.40 | 1.40 | 69 | 1007.8 |
| 20260903222225 | 30 | 179 | 0.0 | 17.7 | 0.00 | 1.40 | 1.40 | 69 | 1007.8 |
| 20260903222048 | 30 | 178 | 0.0 | 17.7 | 0.00 | 1.40 | 1.40 | 69 | 1007.8 |
| 20260903221931 | 30 | 172 | 0.0 | 17.7 | 0.00 | 1.40 | 1.40 | 69 | 1007.9 |
| 20260903221826 | 30 | 166 | 0.0 | 17.7 | 0.00 | 1.40 | 1.40 | 69 | 1007.9 |
| 20260903221535 | 30 | 171 | 0.0 | 17.7 | 0.00 | 1.40 | 1.40 | 68 | 1007.9 |
| 20260903221531 | 30 | 169 | 0.0 | 17.7 | 0.00 | 1.40 | 1.40 | 68 | 1007.9 |
| 20260903221330 | 30 | 186 | 0.0 | 17.7 | 0.00 | 1.40 | 1.40 | 68 | 1008.0 |
| 20260903221132 | 30 | 178 | 0.0 | 11.3 | 0.00 | 1.40 | 1.40 | 68 | 1008.0 |
| 20260903221030 | 30 | 178 | 0.0 | 11.3 | 0.00 | 1.40 | 1.40 | 68 | 1008.1 |
| 20260903220932 | 30 | 178 | 0.0 | 11.3 | 0.00 | 1.40 | 1.40 | 68 | 1008.1 |
| 20260903220815 | 31 | 180 | 0.0 | 11.3 | 0.00 | 1.40 | 1.40 | 67 | 1008.0 |
| 20260903220520 | 31 | 165 | 0.0 | 9.7 | 0.00 | 1.40 | 1.40 | 69 | 1008.1 |
| 20260903220515 | 31 | 166 | 0.0 | 9.7 | 0.00 | 1.40 | 1.40 | 69 | 1008.1 |
| 20260903220411 | 31 | 202 | 0.0 | 9.7 | 0.00 | 1.40 | 1.40 | 67 | 1008.0 |
| 20260903220111 | 31 | 193 | 0.0 | 9.7 | 0.00 | 1.40 | 1.40 | 68 | 1008.0 |
| 20260903220012 | 31 | 189 | 0.0 | 9.7 | 0.00 | 1.40 | 1.40 | 68 | 1008.0 |
| 20260903215912 | 31 | 172 | 0.0 | 8.0 | 0.00 | 1.40 | 1.40 | 68 | 1008.0 |
| 20260903215711 | 31 | 1 | 0.0 | 8.0 | 0.00 | 1.40 | 1.40 | 69 | 1008.0 |
| 20260903215614 | 31 | 216 | 0.0 | 14.5 | 0.00 | 1.40 | 1.40 | 68 | 1008.1 |
| 20260903215515 | 31 | 216 | 0.0 | 14.5 | 0.00 | 1.40 | 1.40 | 68 | 1008.1 |
| 20260903215356 | 30 | 245 | 0.0 | 14.5 | 0.00 | 1.40 | 1.40 | 68 | 1008.1 |
| 20260903215324 | 30 | 128 | 0.0 | 14.5 | 0.00 | 1.40 | 1.40 | 69 | 1008.1 |
| 20260903215319 | 31 | 176 | 0.0 | 14.5 | 0.00 | 1.40 | 1.40 | 68 | 1008.1 |
| 20260903214913 | 30 | 178 | 0.0 | 16.1 | 0.00 | 1.40 | 1.40 | 69 | 1008.2 |
| 20260903214712 | 30 | 169 | 0.0 | 16.1 | 0.00 | 1.40 | 1.40 | 68 | 1008.4 |
| 20260903214512 | 30 | 168 | 0.0 | 16.1 | 0.00 | 1.40 | 1.40 | 68 | 1008.4 |
| 20260903214311 | 30 | 228 | 0.0 | 17.7 | 0.00 | 1.40 | 1.40 | 68 | 1008.4 |
| 20260903214213 | 30 | 159 | 0.0 | 17.7 | 0.00 | 1.40 | 1.40 | 67 | 1008.2 |
| 20260903214011 | 30 | 140 | 0.0 | 17.7 | 0.00 | 1.40 | 1.40 | 68 | 1008.2 |
| 20260903213912 | 30 | 165 | 0.0 | 17.7 | 0.00 | 1.40 | 1.40 | 68 | 1008.3 |
| 20260903213810 | 31 | 37 | 0.0 | 17.7 | 0.00 | 1.40 | 1.40 | 67 | 1008.3 |
| 20260903213514 | 31 | 145 | 0.0 | 17.7 | 0.00 | 1.40 | 1.40 | 67 | 1008.4 |
| 20260903213311 | 31 | 0 | 0.0 | 9.7 | 0.00 | 1.40 | 1.40 | 67 | 1008.5 |
| 20260903213111 | 31 | 200 | 0.0 | 9.7 | 0.00 | 1.40 | 1.40 | 69 | 1008.5 |
| 20260903213012 | 31 | 55 | 0.0 | 9.7 | 0.00 | 1.40 | 1.40 | 69 | 1008.5 |
| 20260903212911 | 30 | 175 | 0.0 | 11.3 | 0.00 | 1.40 | 1.40 | 69 | 1008.5 |
| 20260903212814 | 30 | 175 | 0.0 | 11.3 | 0.00 | 1.40 | 1.40 | 70 | 1008.3 |
| 20260903212511 | 30 | 186 | 0.0 | 11.3 | 0.00 | 1.40 | 1.40 | 69 | 1008.5 |
| 20260903212413 | 30 | 165 | 0.0 | 11.3 | 0.00 | 1.40 | 1.40 | 69 | 1008.5 |
| 20260903212111 | 30 | 21 | 0.0 | 16.1 | 0.00 | 1.40 | 1.40 | 69 | 1008.4 |
| 20260903212013 | 30 | 179 | 0.0 | 16.1 | 0.00 | 1.40 | 1.40 | 68 | 1008.4 |
| 20260903211912 | 30 | 171 | 0.0 | 16.1 | 0.00 | 1.40 | 1.40 | 69 | 1008.4 |
| 20260903211711 | 30 | 155 | 0.0 | 16.1 | 0.00 | 1.40 | 1.40 | 69 | 1008.4 |
| 20260903211512 | 30 | 141 | 0.0 | 16.1 | 0.00 | 1.40 | 1.40 | 68 | 1008.5 |
| 20260903211313 | 30 | 144 | 0.0 | 16.1 | 0.00 | 1.40 | 1.40 | 68 | 1008.5 |
| 20260903211210 | 30 | 176 | 0.0 | 16.1 | 0.00 | 1.40 | 1.40 | 67 | 1008.4 |
| 20260903211004 | 30 | 182 | 0.0 | 16.1 | 0.00 | 1.40 | 1.40 | 67 | 1008.5 |
| 20260903210912 | 31 | 154 | 0.0 | 16.1 | 0.00 | 1.40 | 1.40 | 66 | 1008.4 |
| 20260903210711 | 31 | 162 | 0.0 | 11.3 | 0.00 | 1.40 | 1.40 | 66 | 1008.4 |
| 20260903210528 | 31 | 200 | 0.0 | 11.3 | 0.00 | 1.40 | 1.40 | 69 | 1008.3 |
| 20260903210503 | 31 | 157 | 0.0 | 11.3 | 0.00 | 1.40 | 1.40 | 69 | 1008.3 |
| 20260903210341 | 31 | 173 | 0.0 | 11.3 | 0.00 | 1.40 | 1.40 | 68 | 1008.3 |
| 20260903210312 | 31 | 118 | 0.0 | 11.3 | 0.00 | 1.40 | 1.40 | 68 | 1008.3 |
| 20260903210254 | 31 | 173 | 0.0 | 11.3 | 0.00 | 1.40 | 1.40 | 68 | 1008.4 |
| 20260903205911 | 31 | 161 | 0.0 | 11.3 | 0.00 | 1.40 | 1.40 | 69 | 1008.4 |
| 20260903205814 | 30 | 165 | 0.0 | 8.0 | 0.00 | 1.40 | 1.40 | 68 | 1008.4 |
| 20260903205508 | 30 | 183 | 0.0 | 8.0 | 0.00 | 1.40 | 1.40 | 70 | 1008.4 |
| 20260903205314 | 30 | 166 | 0.0 | 0.0 | 0.00 | 1.40 | 1.40 | 70 | 1008.7 |
| 20260903205306 | 30 | 148 | 0.0 | 4.8 | 0.00 | 1.40 | 1.40 | 69 | 1008.5 |
| 20260903205238 | 30 | 175 | 0.0 | 0.0 | 0.00 | 1.40 | 1.40 | 69 | 1008.6 |
| 20260903204902 | 30 | 161 | 0.0 | 0.0 | 0.00 | 1.40 | 1.40 | 70 | 1008.7 |
| 20260903204759 | 30 | 162 | 0.0 | 0.0 | 0.00 | 1.40 | 1.40 | 71 | 1008.7 |
| 20260903204511 | 30 | 186 | 0.0 | 3.2 | 0.00 | 1.40 | 1.40 | 72 | 1008.9 |
| 20260903204456 | 30 | 158 | 0.0 | 3.2 | 0.00 | 1.40 | 1.40 | 72 | 1008.9 |
| 20260903204400 | 29 | 144 | 0.0 | 3.2 | 0.00 | 1.40 | 1.40 | 71 | 1008.8 |
| 20260903204310 | 29 | 195 | 0.0 | 3.2 | 0.00 | 1.40 | 1.40 | 71 | 1008.9 |
| 20260903204239 | 29 | 192 | 0.0 | 3.2 | 0.00 | 1.40 | 1.40 | 71 | 1008.8 |
| 20260903203906 | 29 | 137 | 0.0 | 3.2 | 0.00 | 1.40 | 1.40 | 70 | 1008.8 |
| 20260903203652 | 29 | 180 | 0.0 | 0.0 | 0.00 | 1.40 | 1.40 | 71 | 1008.9 |
| 20260903203500 | 29 | 196 | 0.0 | 0.0 | 0.00 | 1.40 | 1.40 | 72 | 1008.8 |
| 20260903203108 | -17 | 0.0 | 0.0 | 0.00 | 1.40 | 1.40 | |||
| 20260903202839 | -17 | 0.0 | 0.0 | 0.00 | 1.40 | 1.40 | |||
| 20260903202743 | -17 | 0.0 | 0.0 | 0.00 | 1.40 | 1.40 | |||
| 20260903202739 | -17 | 0.0 | 0.0 | 0.00 | 1.40 | 1.40 | |||
| 20260903202549 | -17 | 0.0 | 0.0 | 0.00 | 1.40 | 1.40 | |||
| 20260903202516 | -17 | 0.0 | 0.0 | 0.00 | 1.40 | 1.40 | |||
| 20260903202507 | -17 | 0.0 | 0.0 | 0.00 | 1.40 | 1.40 | |||
| 20260903202008 | -17 | 0.0 | 0.0 | 0.00 | 1.40 | 1.40 | 1008.8 | ||
| 20260903201808 | -17 | 0.0 | 0.0 | 0.00 | 1.40 | 1.40 | 1008.8 | ||
| 20260903201713 | -17 | 0.0 | 0.0 | 0.00 | 1.40 | 1.40 | 1008.8 | ||
| 20260903201607 | 30 | 185 | 0.0 | 4.8 | 0.00 | 1.40 | 1.40 | 69 | 1008.8 |
| 20260903201449 | 30 | 185 | 0.0 | 8.0 | 0.00 | 1.40 | 1.40 | 69 | 1008.8 |
| 20260903201439 | 30 | 185 | 0.0 | 8.0 | 0.00 | 1.40 | 1.40 | 69 | 1008.8 |
| 20260903200931 | 30 | 185 | 0.0 | 8.0 | 0.00 | 1.40 | 1.40 | 69 | 1008.8 |
| 20260903200830 | 30 | 185 | 0.0 | 8.0 | 0.00 | 1.40 | 1.40 | 69 | 1008.8 |
| 20260903200702 | 30 | 185 | 0.0 | 8.0 | 0.00 | 1.40 | 1.40 | 69 | 1008.8 |
| 20260903200507 | 30 | 30 | 0.0 | 9.7 | 0.00 | 1.40 | 1.40 | 68 | 1008.9 |
| 20260903200454 | 30 | 32 | 0.0 | 9.7 | 0.00 | 1.40 | 1.40 | 69 | 1009.0 |
| 20260903200432 | 30 | 25 | 0.0 | 9.7 | 0.00 | 1.40 | 1.40 | 70 | 1008.9 |
| 20260903200113 | 30 | 178 | 0.0 | 9.7 | 0.00 | 1.40 | 1.40 | 69 | 1009.0 |
| 20260903195906 | 30 | 178 | 0.0 | 19.3 | 0.00 | 1.40 | 1.40 | 69 | 1009.1 |
| 20260903195810 | 30 | 35 | 0.0 | 19.3 | 0.00 | 1.40 | 1.40 | 69 | 1009.0 |
| 20260903195706 | 30 | 35 | 0.0 | 19.3 | 0.00 | 1.40 | 1.40 | 69 | 1009.0 |
| 20260903195505 | 31 | 182 | 0.0 | 19.3 | 0.00 | 1.40 | 1.40 | 68 | 1009.0 |
| 20260903195454 | 30 | 190 | 0.0 | 19.3 | 0.00 | 1.40 | 1.40 | 67 | 1009.0 |
| 20260903195429 | 30 | 97 | 0.0 | 19.3 | 0.00 | 1.40 | 1.40 | 68 | 1009.1 |
| 20260903195104 | 30 | 179 | 0.0 | 19.3 | 0.00 | 1.40 | 1.40 | 66 | 1009.0 |
| 20260903194906 | 31 | 166 | 0.0 | 9.7 | 0.00 | 1.40 | 1.40 | 69 | 1009.0 |
| 20260903194813 | 31 | 103 | 0.0 | 11.3 | 0.00 | 1.40 | 1.40 | 70 | 1009.0 |
| 20260903194708 | 31 | 103 | 0.0 | 11.3 | 0.00 | 1.40 | 1.40 | 70 | 1009.0 |
| 20260903194531 | 30 | 27 | 0.0 | 11.3 | 0.00 | 1.40 | 1.40 | 72 | 1009.4 |
| 20260903194504 | 30 | 175 | 0.0 | 11.3 | 0.00 | 1.40 | 1.40 | 69 | 1009.2 |
| 20260903194450 | 30 | 0 | 0.0 | 11.3 | 0.00 | 1.40 | 1.40 | 70 | 1009.4 |
| 20260903194104 | 30 | 164 | 0.0 | 11.3 | 0.00 | 1.40 | 1.40 | 68 | 1009.4 |
| 20260903193904 | 30 | 169 | 0.0 | 16.1 | 0.00 | 1.40 | 1.40 | 70 | 1009.5 |
| 20260903193707 | 30 | 196 | 0.0 | 16.1 | 0.00 | 1.40 | 1.40 | 70 | 1009.4 |
| 20260903193508 | 30 | 189 | 0.0 | 16.1 | 0.00 | 1.40 | 1.40 | 68 | 1009.4 |
| 20260903193407 | 30 | 142 | 0.0 | 16.1 | 0.00 | 1.40 | 1.40 | 67 | 1009.4 |
| 20260903193204 | 30 | 169 | 0.0 | 16.1 | 0.00 | 1.40 | 1.40 | 66 | 1009.4 |
| 20260903193104 | 30 | 224 | 0.0 | 16.1 | 0.00 | 1.40 | 1.40 | 68 | 1009.4 |
| 20260903193004 | 31 | 145 | 0.0 | 11.3 | 0.00 | 1.40 | 1.40 | 70 | 1009.4 |
| 20260903192704 | 31 | 176 | 0.0 | 11.3 | 0.00 | 1.40 | 1.40 | 68 | 1009.3 |
| 20260903192505 | 30 | 252 | 0.0 | 16.1 | 0.00 | 1.40 | 1.40 | 70 | 1009.3 |
| 20260903192307 | 30 | 166 | 0.0 | 16.1 | 0.00 | 1.40 | 1.40 | 68 | 1009.3 |
| 20260903192205 | 30 | 168 | 0.0 | 16.1 | 0.00 | 1.40 | 1.40 | 69 | 1009.3 |
| 20260903192104 | 30 | 173 | 0.0 | 16.1 | 0.00 | 1.40 | 1.40 | 71 | 1009.3 |
| 20260903192006 | 30 | 182 | 0.0 | 16.1 | 0.00 | 1.40 | 1.40 | 68 | 1009.2 |
| 20260903191705 | 30 | 193 | 0.0 | 16.1 | 0.00 | 1.40 | 1.40 | 70 | 1009.2 |
| 20260903191612 | 30 | 217 | 0.0 | 14.5 | 0.00 | 1.40 | 1.40 | 69 | 1009.2 |
| 20260903191306 | 30 | 168 | 0.0 | 14.5 | 0.00 | 1.40 | 1.40 | 71 | 1009.3 |
| 20260903191204 | 30 | 159 | 0.0 | 14.5 | 0.00 | 1.40 | 1.40 | 72 | 1009.3 |
| 20260903191104 | 30 | 186 | 0.0 | 14.5 | 0.00 | 1.40 | 1.40 | 69 | 1009.3 |
| 20260903190904 | 30 | 68 | 0.0 | 14.5 | 0.03 | 1.40 | 1.40 | 70 | 1009.3 |
| 20260903190707 | 30 | 180 | 0.0 | 9.7 | 0.03 | 1.40 | 1.40 | 69 | 1009.4 |
| 20260903190504 | 30 | 195 | 0.0 | 9.7 | 0.03 | 1.40 | 1.40 | 70 | 1009.3 |
| 20260903190454 | 30 | 210 | 0.0 | 9.7 | 0.08 | 1.40 | 1.40 | 70 | 1009.4 |
| 20260903190429 | 30 | 234 | 0.0 | 9.7 | 0.03 | 1.40 | 1.40 | 70 | 1009.3 |
| 20260903190119 | 30 | 162 | 0.0 | 0.0 | 0.18 | 1.27 | 1.40 | 71 | 1009.3 |
| 20260903190107 | 30 | 173 | 0.0 | 9.7 | 0.10 | 1.40 | 1.40 | 70 | 1009.4 |
| 20260903185704 | 30 | 65 | 0.0 | 0.0 | 0.28 | 1.27 | 1.40 | 71 | 1009.2 |
| 20260903185506 | 30 | 166 | 0.0 | 0.0 | 0.51 | 1.27 | 1.40 | 70 | 1009.2 |
| 20260903185307 | 30 | 206 | 0.0 | 0.0 | 0.51 | 1.27 | 1.40 | 70 | 1009.2 |
| 20260903185203 | 30 | 179 | 0.0 | 0.0 | 0.51 | 1.27 | 1.40 | 69 | 1009.3 |
| 20260903185104 | 30 | 166 | 0.0 | 0.0 | 0.56 | 1.27 | 1.40 | 70 | 1009.3 |
| 20260903184904 | 30 | 221 | 0.0 | 0.0 | 0.61 | 1.27 | 1.40 | 70 | 1009.4 |
| 20260903184717 | 29 | 190 | 0.0 | 0.0 | 0.66 | 1.27 | 1.40 | 72 | 1009.4 |
| 20260903184706 | 30 | 178 | 0.0 | 0.0 | 0.64 | 1.27 | 1.40 | 73 | 1009.4 |
| 20260903184305 | 29 | 200 | 0.0 | 0.0 | 0.76 | 1.27 | 1.40 | 72 | 1009.4 |
| 20260903184203 | 29 | 168 | 0.0 | 0.0 | 0.79 | 1.27 | 1.40 | 72 | 1009.4 |
| 20260903184106 | 29 | 186 | 0.0 | 0.0 | 0.79 | 1.27 | 1.40 | 73 | 1009.4 |
| 20260903183906 | 29 | 159 | 0.0 | 0.0 | 0.79 | 1.27 | 1.40 | 73 | 1009.4 |
| 20260903183704 | 29 | 176 | 0.0 | 0.0 | 0.79 | 1.27 | 1.40 | 75 | 1009.4 |
| 20260903183505 | 29 | 220 | 0.0 | 0.0 | 0.79 | 1.27 | 1.40 | 76 | 1009.4 |
| 20260903183314 | 28 | 157 | 0.0 | 0.0 | 0.79 | 1.27 | 1.40 | 76 | 1009.4 |
| 20260903183306 | 28 | 154 | 0.0 | 0.0 | 0.79 | 1.27 | 1.40 | 75 | 1009.5 |
| 20260903183206 | 28 | 203 | 0.0 | 0.0 | 0.79 | 1.27 | 1.40 | 76 | 1009.5 |
| 20260903182905 | 28 | 200 | 0.0 | 0.0 | 0.79 | 1.27 | 1.40 | 78 | 1009.5 |
| 20260903182704 | 28 | 154 | 0.0 | 0.0 | 0.79 | 1.27 | 1.40 | 81 | 1009.4 |
| 20260903182505 | 28 | 185 | 0.0 | 0.0 | 0.79 | 1.27 | 1.40 | 84 | 1009.4 |
| 20260903182307 | 27 | 196 | 0.0 | 0.0 | 0.79 | 1.27 | 1.40 | 82 | 1009.4 |
| 20260903182208 | 27 | 162 | 0.0 | 0.0 | 0.79 | 1.27 | 1.40 | 84 | 1009.5 |
| 20260903182203 | 27 | 159 | 0.0 | 0.0 | 0.79 | 1.27 | 1.40 | 84 | 1009.4 |
| 20260903181906 | 26 | 176 | 0.0 | 0.0 | 0.79 | 1.27 | 1.40 | 85 | 1009.5 |
| 20260903181704 | 26 | 176 | 0.0 | 0.0 | 0.79 | 1.27 | 1.40 | 87 | 1009.5 |
| 20260903181504 | 26 | 171 | 0.0 | 0.0 | 0.79 | 1.27 | 1.40 | 86 | 1009.5 |
| 20260903181404 | 25 | 169 | 0.0 | 0.0 | 0.79 | 1.27 | 1.40 | 87 | 1009.6 |
| 20260903181203 | 25 | 169 | 0.0 | 0.0 | 0.79 | 1.27 | 1.40 | 87 | 1009.7 |
| 20260903181104 | 25 | 147 | 0.0 | 0.0 | 0.79 | 1.27 | 1.40 | 87 | 1009.6 |
| 20260903180905 | 25 | 154 | 0.0 | 0.0 | 0.76 | 1.27 | 1.37 | 88 | 1009.8 |
| 20260903180809 | 25 | 164 | 0.0 | 0.0 | 0.76 | 1.27 | 1.37 | 88 | 1009.7 |
| 20260903180704 | 25 | 164 | 0.0 | 0.0 | 0.76 | 1.27 | 1.37 | 88 | 1009.7 |
| 20260903180504 | 25 | 193 | 0.0 | 0.0 | 0.76 | 1.27 | 1.37 | 88 | 1009.9 |
| 20260903180308 | 25 | 196 | 0.0 | 0.0 | 0.76 | 1.27 | 1.32 | 88 | 1009.8 |
| 20260903180203 | 25 | 25 | 0.0 | 0.0 | 0.71 | 1.27 | 1.30 | 88 | 1009.9 |
| 20260903180104 | 25 | 27 | 0.0 | 0.0 | 0.69 | 1.27 | 1.27 | 87 | 1009.8 |
| 20260903180005 | 25 | 180 | 0.0 | 0.0 | 0.61 | 0.61 | 0.74 | 87 | 1009.7 |
| 20260903175704 | 25 | 178 | 0.0 | 0.0 | 0.51 | 0.61 | 0.64 | 86 | 1009.8 |
| 20260903175506 | 26 | 157 | 0.0 | 0.0 | 0.30 | 0.61 | 0.41 | 85 | 1009.6 |
| 20260903175405 | 26 | 157 | 0.0 | 0.0 | 0.30 | 0.61 | 0.41 | 85 | 1009.5 |
| 20260903175203 | 26 | 157 | 0.0 | 0.0 | 0.33 | 0.61 | 0.41 | 85 | 1009.4 |
| 20260903175105 | 26 | 196 | 0.0 | 0.0 | 0.28 | 0.61 | 0.38 | 85 | 1009.4 |
| 20260903174905 | 26 | 207 | 0.0 | 0.0 | 0.23 | 0.61 | 0.33 | 84 | 1009.2 |
| 20260903174704 | 26 | 189 | 0.0 | 0.0 | 0.20 | 0.61 | 0.30 | 84 | 1009.1 |
| 20260903174604 | 26 | 157 | 0.0 | 0.0 | 0.18 | 0.61 | 0.28 | 84 | 1009.2 |
| 20260903174307 | 26 | 168 | 0.0 | 0.0 | 0.08 | 0.61 | 0.18 | 84 | 1009.4 |
| 20260903174203 | 26 | 182 | 0.0 | 0.0 | 0.05 | 0.61 | 0.18 | 84 | 1009.3 |
| 20260903174104 | 27 | 41 | 0.0 | 0.0 | 0.08 | 0.61 | 0.18 | 85 | 1009.2 |
| 20260903173904 | 27 | 171 | 0.0 | 0.0 | 0.18 | 0.61 | 0.18 | 85 | 1009.4 |
| 20260903173705 | 27 | 169 | 0.0 | 0.0 | 0.20 | 0.61 | 0.18 | 85 | 1009.7 |
| 20260903173606 | 27 | 166 | 0.0 | 0.0 | 0.23 | 0.61 | 0.18 | 87 | 1009.7 |
| 20260903173304 | 27 | 161 | 0.0 | 0.0 | 0.28 | 0.61 | 0.18 | 87 | 1009.7 |
| 20260903173210 | 27 | 110 | 0.0 | 0.0 | 0.33 | 0.61 | 0.18 | 90 | 1009.8 |
| 20260903173203 | 27 | 149 | 0.0 | 0.0 | 0.33 | 0.61 | 0.18 | 89 | 1009.8 |
| 20260903172906 | 27 | 111 | 0.0 | 0.0 | 0.36 | 0.61 | 0.18 | 90 | 1009.7 |
| 20260903172705 | 26 | 107 | 0.0 | 0.0 | 0.38 | 0.61 | 0.18 | 91 | 1009.8 |
| 20260903172506 | 26 | 47 | 0.0 | 0.0 | 0.41 | 0.61 | 0.18 | 93 | 1009.7 |
| 20260903172312 | 26 | 45 | 0.0 | 0.0 | 0.43 | 0.61 | 0.18 | 92 | 1009.7 |
| 20260903172211 | 26 | 47 | 0.0 | 0.0 | 0.43 | 0.61 | 0.18 | 92 | 1009.7 |
| 20260903172204 | 26 | 45 | 0.0 | 0.0 | 0.43 | 0.61 | 0.18 | 93 | 1009.8 |
| 20260903171904 | 25 | 47 | 0.0 | 0.0 | 0.43 | 0.61 | 0.18 | 93 | 1009.8 |
| 20260903171807 | 25 | 47 | 0.0 | 0.0 | 0.43 | 0.61 | 0.18 | 94 | 1009.8 |
| 20260903171704 | 25 | 47 | 0.0 | 0.0 | 0.43 | 0.61 | 0.18 | 94 | 1009.8 |
| 20260903171504 | 25 | 45 | 0.0 | 0.0 | 0.43 | 0.61 | 0.18 | 94 | 1009.9 |
| 20260903171304 | 25 | 39 | 0.0 | 0.0 | 0.43 | 0.61 | 0.18 | 94 | 1009.9 |
| 20260903171205 | 24 | 39 | 0.0 | 0.0 | 0.43 | 0.61 | 0.18 | 94 | 1010.0 |
| 20260903171104 | 24 | 41 | 0.0 | 0.0 | 0.43 | 0.61 | 0.18 | 94 | 1010.0 |
| 20260903170905 | 25 | 39 | 0.0 | 0.0 | 0.43 | 0.61 | 0.18 | 95 | 1009.9 |
| 20260903170808 | 24 | 39 | 0.0 | 0.0 | 0.43 | 0.61 | 0.18 | 94 | 1010.1 |
| 20260903170704 | 24 | 39 | 0.0 | 0.0 | 0.43 | 0.61 | 0.18 | 94 | 1010.1 |
| 20260903170509 | 24 | 41 | 0.0 | 0.0 | 0.43 | 0.61 | 0.61 | 92 | 1010.2 |
| 20260903170305 | 24 | 41 | 0.0 | 0.0 | 0.43 | 0.61 | 0.61 | 92 | 1010.1 |
| 20260903170205 | 24 | 41 | 0.0 | 0.0 | 0.43 | 0.61 | 0.61 | 92 | 1010.2 |
| 20260903170106 | 24 | 41 | 0.0 | 0.0 | 0.43 | 0.61 | 0.61 | 92 | 1010.2 |
| 20260903165930 | 24 | 41 | 0.0 | 0.0 | 0.43 | 0.18 | 0.61 | 92 | 1010.3 |
| 20260903165734 | 24 | 41 | 0.0 | 0.0 | 0.43 | 0.18 | 0.61 | 91 | 1010.4 |
| 20260903165703 | 24 | 41 | 0.0 | 0.0 | 0.43 | 0.18 | 0.61 | 92 | 1010.3 |
| 20260903165507 | 25 | 41 | 0.0 | 0.0 | 0.38 | 0.18 | 0.56 | 90 | 1010.4 |
| 20260903165454 | 24 | 41 | 0.0 | 0.0 | 0.41 | 0.18 | 0.58 | 91 | 1010.5 |
| 20260903165422 | 24 | 41 | 0.0 | 0.0 | 0.38 | 0.18 | 0.56 | 91 | 1010.4 |
| 20260903165034 | 25 | 44 | 0.0 | 0.0 | 0.38 | 0.18 | 0.56 | 90 | 1010.3 |
| 20260903164834 | 25 | 44 | 0.0 | 0.0 | 0.38 | 0.18 | 0.56 | 90 | 1010.2 |
| 20260903164700 | 25 | 51 | 0.0 | 0.0 | 0.38 | 0.18 | 0.56 | 89 | 1010.1 |
| 20260903164608 | 25 | 52 | 0.0 | 0.0 | 0.38 | 0.18 | 0.56 | 89 | 1010.2 |
| 20260903164504 | 25 | 93 | 0.0 | 0.0 | 0.38 | 0.18 | 0.56 | 89 | 1010.1 |
| 20260903164309 | 25 | 47 | 0.0 | 0.0 | 0.38 | 0.18 | 0.53 | 88 | 1010.1 |
| 20260903164159 | 25 | 47 | 0.0 | 0.0 | 0.38 | 0.18 | 0.53 | 88 | 1010.1 |
| 20260903164008 | 25 | 51 | 0.0 | 0.0 | 0.33 | 0.18 | 0.51 | 88 | 1010.2 |
| 20260903163808 | 25 | 32 | 0.0 | 0.0 | 0.25 | 0.18 | 0.41 | 87 | 1010.2 |
| 20260903163700 | 25 | 37 | 0.0 | 0.0 | 0.23 | 0.18 | 0.41 | 87 | 1010.2 |
| 20260903163605 | 25 | 8 | 0.0 | 0.0 | 0.23 | 0.18 | 0.38 | 86 | 1010.2 |
| 20260903163405 | 26 | 120 | 0.0 | 0.0 | 0.18 | 0.18 | 0.33 | 86 | 1010.3 |
| 20260903163207 | 26 | 133 | 0.0 | 0.0 | 0.10 | 0.18 | 0.28 | 86 | 1010.5 |
| 20260903163159 | 26 | 133 | 0.0 | 0.0 | 0.10 | 0.18 | 0.28 | 86 | 1010.5 |
| 20260903163106 | 26 | 133 | 0.0 | 0.0 | 0.08 | 0.18 | 0.25 | 86 | 1010.5 |
| 20260903162804 | 26 | 133 | 0.0 | 0.0 | 0.08 | 0.18 | 0.23 | 86 | 1010.4 |
| 20260903162658 | 26 | 131 | 0.0 | 0.0 | 0.05 | 0.18 | 0.23 | 85 | 1010.5 |
| 20260903162611 | 26 | 131 | 0.0 | 0.0 | 0.05 | 0.18 | 0.20 | 85 | 1010.5 |
| 20260903162403 | 26 | 131 | 0.0 | 0.0 | 0.03 | 0.18 | 0.18 | 85 | 1010.5 |
| 20260903162206 | 26 | 134 | 0.0 | 0.0 | 0.00 | 0.18 | 0.18 | 84 | 1010.2 |
| 20260903162201 | 26 | 133 | 0.0 | 0.0 | 0.00 | 0.18 | 0.18 | 84 | 1010.2 |
| 20260903162002 | 26 | 155 | 0.0 | 0.0 | 0.00 | 0.18 | 0.18 | 84 | 1010.2 |
| 20260903161805 | 26 | 155 | 0.0 | 0.0 | 0.00 | 0.18 | 0.18 | 84 | 1010.2 |
| 20260903161706 | 26 | 157 | 0.0 | 0.0 | 0.00 | 0.18 | 0.18 | 84 | 1010.3 |
| 20260903161702 | 26 | 155 | 0.0 | 0.0 | 0.00 | 0.18 | 0.18 | 84 | 1010.3 |
| 20260903161500 | 26 | 155 | 0.0 | 0.0 | 0.00 | 0.18 | 0.18 | 84 | 1010.3 |
| 20260903161206 | 26 | 157 | 0.0 | 0.0 | 0.00 | 0.18 | 0.18 | 84 | 1010.2 |
| 20260903161201 | 26 | 157 | 0.0 | 0.0 | 0.00 | 0.18 | 0.18 | 84 | 1010.3 |
| 20260903161002 | 26 | 155 | 0.0 | 0.0 | 0.00 | 0.18 | 0.18 | 84 | 1010.3 |
| 20260903160951 | 26 | 158 | 0.0 | 0.0 | 0.00 | 0.18 | 0.18 | 84 | 1010.4 |
| 20260903160923 | 26 | 157 | 0.0 | 0.0 | 0.00 | 0.18 | 0.18 | 84 | 1010.3 |
| 20260903160617 | 26 | 157 | 0.0 | 0.0 | 0.00 | 0.18 | 0.18 | 84 | 1010.4 |
| 20260903160408 | 26 | 155 | 0.0 | 0.0 | 0.00 | 0.18 | 0.18 | 84 | 1010.4 |
| 20260903160306 | 26 | 20 | 0.0 | 0.0 | 0.00 | 0.18 | 0.18 | 86 | 1010.4 |
| 20260903160151 | 26 | 20 | 0.0 | 0.0 | 0.00 | 0.18 | 0.18 | 86 | 1010.4 |
| 20260903160111 | 26 | 20 | 0.0 | 0.0 | 0.00 | 0.18 | 0.18 | 86 | 1010.3 |
| 20260903155935 | 25 | 161 | 0.0 | 0.0 | 0.00 | 0.18 | 0.18 | 86 | 1010.3 |
| 20260903155916 | 25 | 35 | 0.0 | 0.0 | 0.00 | 0.18 | 0.18 | 86 | 1010.3 |
| 20260903155553 | 25 | 94 | 0.0 | 0.0 | 0.00 | 0.18 | 0.18 | 85 | 1010.4 |
| 20260903155351 | 25 | 16 | 0.0 | 0.0 | 0.00 | 0.18 | 0.18 | 86 | 1010.3 |
| 20260903155151 | 25 | 0 | 0.0 | 0.0 | 0.00 | 0.18 | 0.18 | 85 | 1010.4 |
| 20260903155107 | 25 | 166 | 0.0 | 0.0 | 0.00 | 0.18 | 0.18 | 85 | 1010.2 |
| 20260903155059 | 25 | 166 | 0.0 | 0.0 | 0.00 | 0.18 | 0.18 | 85 | 1010.2 |
| 20260903155042 | 25 | 331 | 0.0 | 0.0 | 0.00 | 0.18 | 0.18 | 85 | 1010.3 |
| 20260903154643 | 25 | 155 | 0.0 | 0.0 | 0.00 | 0.18 | 0.18 | 85 | 1010.3 |
| 20260903154348 | 25 | 157 | 0.0 | 0.0 | 0.00 | 0.18 | 0.18 | 85 | 1010.2 |
| 20260903154146 | 25 | 128 | 0.0 | 0.0 | 0.00 | 0.18 | 0.18 | 85 | 1010.3 |
| 20260903154014 | 25 | 38 | 0.0 | 0.0 | 0.00 | 0.18 | 0.18 | 86 | 1010.2 |
| 20260903153948 | 25 | 137 | 0.0 | 0.0 | 0.00 | 0.18 | 0.18 | 86 | 1010.3 |
| 20260903153943 | 25 | 37 | 0.0 | 0.0 | 0.00 | 0.18 | 0.18 | 86 | 1010.3 |
| 20260903153544 | 25 | 37 | 0.0 | 0.0 | 0.00 | 0.18 | 0.18 | 86 | 1010.2 |
| 20260903153443 | 25 | 35 | 0.0 | 0.0 | 0.00 | 0.18 | 0.18 | 86 | 1010.2 |
| 20260903153140 | 25 | 35 | 0.0 | 0.0 | 0.00 | 0.18 | 0.18 | 86 | 1010.3 |
| 20260903153134 | 25 | 38 | 0.0 | 0.0 | 0.00 | 0.18 | 0.18 | 86 | 1010.3 |
| 20260903152938 | 25 | 144 | 0.0 | 0.0 | 0.00 | 0.18 | 0.18 | 87 | 1010.3 |
| 20260903152740 | 25 | 142 | 0.0 | 0.0 | 0.00 | 0.18 | 0.18 | 87 | 1010.2 |
| 20260903152633 | 25 | 142 | 0.0 | 0.0 | 0.00 | 0.18 | 0.18 | 87 | 1010.2 |
| 20260903152536 | 25 | 145 | 0.0 | 0.0 | 0.00 | 0.18 | 0.18 | 87 | 1010.2 |
| 20260903152445 | 25 | 37 | 0.0 | 0.0 | 0.00 | 0.18 | 0.18 | 88 | 1010.2 |